Time,TemperatureF,DewpointF,PressureIn,WindDirection,WindDirectionDegrees,WindSpeedMPH,WindSpeedGustMPH,Humidity,HourlyPrecipIn,Conditions,Clouds,dailyrainin,SoftwareType,DateUTC
2013-03-10 00:01:00,34.7,31.5,29.76,SSE,167,3.3,5.8,88,0.04,RA,,0.01,WeatherDisplay:10.37,2013-03-10 06:01:00,
2013-03-10 00:03:00,34.7,31.5,29.76,South,191,2.8,5.8,88,0.04,RA,,0.01,WeatherDisplay:10.37,2013-03-10 06:03:00,
2013-03-10 00:06:00,34.7,31.5,29.75,SSE,161,2.4,5.8,88,0.04,RA,,0.01,WeatherDisplay:10.37,2013-03-10 06:06:00,
2013-03-10 00:07:00,34.8,31.6,29.75,SSE,161,0.2,4.6,88,0.04,RA,,0.01,WeatherDisplay:10.37,2013-03-10 06:07:00,
2013-03-10 00:08:00,34.8,31.6,29.75,South,178,0.5,2.6,88,0.04,RA,,0.01,WeatherDisplay:10.37,2013-03-10 06:08:00,
2013-03-10 00:11:00,34.8,31.6,29.75,SSE,167,4.0,5.0,88,0.03,,,0.01,WeatherDisplay:10.37,2013-03-10 06:11:00,
2013-03-10 00:12:00,34.8,31.6,29.75,SSW,206,3.3,9.2,88,0.03,,,0.01,WeatherDisplay:10.37,2013-03-10 06:12:00,
2013-03-10 00:13:00,34.8,31.6,29.75,South,179,3.6,5.8,88,0.03,CLR,,0.01,WeatherDisplay:10.37,2013-03-10 06:13:00,
2013-03-10 00:16:00,34.8,31.6,29.76,SW,219,2.2,4.6,88,0.03,CLR,,0.01,WeatherDisplay:10.37,2013-03-10 06:16:00,
2013-03-10 00:17:00,34.9,31.7,29.76,SSW,209,2.6,5.4,88,0.03,CLR,,0.01,WeatherDisplay:10.37,2013-03-10 06:17:00,
2013-03-10 00:18:00,35.0,31.8,29.76,South,189,2.8,6.9,88,0.03,CLR,,0.02,WeatherDisplay:10.37,2013-03-10 06:18:00,
2013-03-10 00:21:00,35.0,31.8,29.75,South,186,2.1,4.6,88,0.04,RA,,0.02,WeatherDisplay:10.37,2013-03-10 06:21:00,
2013-03-10 00:22:00,35.0,31.8,29.75,East,88,2.2,3.9,88,0.04,RA,,0.02,WeatherDisplay:10.37,2013-03-10 06:22:00,
2013-03-10 00:23:00,35.0,31.8,29.75,SW,215,2.8,4.6,88,0.04,RA,,0.02,WeatherDisplay:10.37,2013-03-10 06:23:00,
2013-03-10 00:27:00,35.0,31.8,29.75,SW,222,3.1,5.8,88,0.03,RA,,0.02,WeatherDisplay:10.37,2013-03-10 06:27:00,
2013-03-10 00:28:00,34.9,31.7,29.75,South,178,1.8,5.8,88,0.03,RA,,0.02,WeatherDisplay:10.37,2013-03-10 06:28:00,
2013-03-10 00:32:00,34.9,31.7,29.75,South,172,2.0,5.8,88,0.03,CLR,,0.02,WeatherDisplay:10.37,2013-03-10 06:32:00,
2013-03-10 00:33:00,35.1,31.9,29.75,SSW,200,3.2,3.5,88,0.03,CLR,,0.02,WeatherDisplay:10.37,2013-03-10 06:33:00,
2013-03-10 00:34:00,35.0,31.8,29.75,South,181,2.8,5.8,88,0.03,CLR,,0.02,WeatherDisplay:10.37,2013-03-10 06:34:00,
2013-03-10 00:37:00,35.1,31.9,29.75,South,182,2.3,5.8,88,0.04,RA,,0.03,WeatherDisplay:10.37,2013-03-10 06:37:00,
2013-03-10 00:38:00,35.1,31.9,29.75,SW,229,3.8,6.9,88,0.04,RA,,0.03,WeatherDisplay:10.37,2013-03-10 06:38:00,
2013-03-10 00:39:00,35.1,31.9,29.75,SSW,193,2.8,6.9,88,0.04,RA,,0.03,WeatherDisplay:10.37,2013-03-10 06:39:00,
2013-03-10 00:42:00,35.1,31.9,29.75,South,176,3.4,5.2,88,0.04,RA,,0.03,WeatherDisplay:10.37,2013-03-10 06:42:00,
2013-03-10 00:44:00,35.1,31.9,29.75,South,171,1.7,4.6,88,0.03,RA,,0.03,WeatherDisplay:10.37,2013-03-10 06:44:00,
2013-03-10 00:47:00,35.2,32.0,29.75,South,191,4.4,6.9,88,0.03,,,0.03,WeatherDisplay:10.37,2013-03-10 06:47:00,
2013-03-10 00:48:00,35.2,32.0,29.75,SSW,209,3.4,6.9,88,0.03,,,0.03,WeatherDisplay:10.37,2013-03-10 06:48:00,
2013-03-10 00:49:00,35.2,32.0,29.75,SSE,150,2.1,4.6,88,0.03,CLR,,0.03,WeatherDisplay:10.37,2013-03-10 06:49:00,
2013-03-10 00:53:00,35.3,32.1,29.75,WSW,241,5.1,8.1,88,0.03,CLR,,0.03,WeatherDisplay:10.37,2013-03-10 06:53:00,
2013-03-10 00:54:00,35.2,32.0,29.75,SW,216,5.7,9.2,88,0.03,CLR,,0.03,WeatherDisplay:10.37,2013-03-10 06:54:00,
2013-03-10 00:58:00,35.2,32.0,29.75,SSW,205,3.2,4.8,88,0.04,RA,,0.04,WeatherDisplay:10.37,2013-03-10 06:58:00,
2013-03-10 00:59:00,35.2,32.0,29.75,SSW,205,3.9,5.8,88,0.04,RA,,0.04,WeatherDisplay:10.37,2013-03-10 06:59:00,
2013-03-10 01:03:00,35.2,32.0,29.75,SSW,205,4.7,8.1,88,0.03,RA,,0.04,WeatherDisplay:10.37,2013-03-10 07:03:00,
2013-03-10 01:04:00,35.3,32.1,29.75,SSW,202,5.4,8.8,88,0.03,RA,,0.04,WeatherDisplay:10.37,2013-03-10 07:04:00,
2013-03-10 01:08:00,35.2,32.0,29.75,South,191,3.6,8.1,88,0.03,,,0.04,WeatherDisplay:10.37,2013-03-10 07:08:00,
2013-03-10 01:09:00,35.3,32.1,29.75,South,191,4.1,5.8,88,0.03,CLR,,0.04,WeatherDisplay:10.37,2013-03-10 07:09:00,
2013-03-10 01:13:00,35.3,32.1,29.75,South,188,4.3,6.9,88,0.03,CLR,,0.04,WeatherDisplay:10.37,2013-03-10 07:13:00,
2013-03-10 01:14:00,35.3,32.1,29.75,SW,217,2.7,4.6,88,0.03,CLR,,0.04,WeatherDisplay:10.37,2013-03-10 07:14:00,
2013-03-10 01:15:00,35.4,32.2,29.76,West,275,2.0,3.5,88,0.03,CLR,,0.04,WeatherDisplay:10.37,2013-03-10 07:15:00,
2013-03-10 01:18:00,35.5,32.3,29.76,West,271,0.5,3.5,88,0.04,RA,,0.05,WeatherDisplay:10.37,2013-03-10 07:18:00,
2013-03-10 01:19:00,35.5,32.3,29.76,WSW,240,0.4,2.5,88,0.03,RA,,0.05,WeatherDisplay:10.37,2013-03-10 07:19:00,
2013-03-10 01:20:00,35.4,32.2,29.76,West,281,1.3,2.6,88,0.03,RA,,0.05,WeatherDisplay:10.37,2013-03-10 07:20:00,
2013-03-10 01:24:00,35.4,32.2,29.76,SW,229,2.4,5.8,88,0.03,RA,,0.05,WeatherDisplay:10.37,2013-03-10 07:24:00,
2013-03-10 01:25:00,35.3,32.1,29.76,SW,234,1.3,2.3,88,0.03,RA,,0.05,WeatherDisplay:10.37,2013-03-10 07:25:00,
2013-03-10 01:29:00,35.5,32.3,29.76,SW,226,2.1,4.6,88,0.03,CLR,,0.05,WeatherDisplay:10.37,2013-03-10 07:29:00,
2013-03-10 01:30:00,35.4,32.2,29.76,SW,222,2.5,3.5,88,0.03,CLR,,0.05,WeatherDisplay:10.37,2013-03-10 07:30:00,
2013-03-10 01:34:00,35.2,32.0,29.76,SW,216,1.1,3.5,88,0.03,CLR,,0.06,WeatherDisplay:10.37,2013-03-10 07:34:00,
2013-03-10 01:35:00,35.2,32.0,29.76,WSW,248,0.8,2.3,88,0.04,RA,,0.06,WeatherDisplay:10.37,2013-03-10 07:35:00,
2013-03-10 01:39:00,35.1,31.9,29.75,South,176,1.7,3.5,88,0.03,RA,,0.06,WeatherDisplay:10.37,2013-03-10 07:39:00,
2013-03-10 01:40:00,35.1,31.9,29.75,SE,143,0.4,2.3,88,0.03,RA,,0.06,WeatherDisplay:10.37,2013-03-10 07:40:00,
2013-03-10 01:41:00,35.1,31.9,29.75,South,174,1.1,3.9,88,0.03,RA,,0.06,WeatherDisplay:10.37,2013-03-10 07:41:00,
2013-03-10 01:44:00,35.1,31.9,29.75,SSE,167,1.3,3.5,88,0.03,RA,,0.06,WeatherDisplay:10.37,2013-03-10 07:44:00,
2013-03-10 01:45:00,35.0,31.8,29.75,SSE,151,0.9,2.3,88,0.03,,,0.06,WeatherDisplay:10.37,2013-03-10 07:45:00,
2013-03-10 01:46:00,35.1,31.9,29.75,SW,216,1.8,3.5,88,0.03,,,0.06,WeatherDisplay:10.37,2013-03-10 07:46:00,
2013-03-10 01:49:00,35.1,31.9,29.74,South,191,1.0,4.6,88,0.03,CLR,,0.06,WeatherDisplay:10.37,2013-03-10 07:49:00,
2013-03-10 01:50:00,35.2,32.0,29.74,SSW,199,0.9,2.6,88,0.03,CLR,,0.06,WeatherDisplay:10.37,2013-03-10 07:50:00,
2013-03-10 01:51:00,35.0,31.8,29.74,South,175,1.7,3.5,88,0.04,RA,,0.07,WeatherDisplay:10.37,2013-03-10 07:51:00,
2013-03-10 01:54:00,35.0,31.8,29.74,SSE,162,2.2,3.5,88,0.04,RA,,0.07,WeatherDisplay:10.37,2013-03-10 07:54:00,
2013-03-10 01:55:00,35.0,31.8,29.74,SSE,164,2.1,4.6,88,0.04,RA,,0.07,WeatherDisplay:10.37,2013-03-10 07:55:00,
2013-03-10 01:57:00,35.1,31.9,29.75,South,188,3.4,5.8,88,0.03,RA,,0.07,WeatherDisplay:10.37,2013-03-10 07:57:00,
2013-03-10 01:59:00,35.0,31.8,29.74,SSE,148,1.9,5.8,88,0.03,RA,,0.07,WeatherDisplay:10.37,2013-03-10 07:59:00,
2013-03-10 03:00:00,35.1,31.9,29.74,South,189,1.4,3.5,88,0.03,RA,,0.07,WeatherDisplay:10.37,2013-03-10 08:00:00,
2013-03-10 03:01:00,35.1,31.9,29.74,South,184,0.4,4.7,88,0.04,RA,,0.08,WeatherDisplay:10.37,2013-03-10 08:01:00,
2013-03-10 03:02:00,35.0,31.8,29.74,South,191,3.8,5.8,88,0.04,RA,,0.08,WeatherDisplay:10.37,2013-03-10 08:02:00,
2013-03-10 03:04:00,35.1,31.9,29.74,South,175,3.5,6.9,88,0.04,RA,,0.08,WeatherDisplay:10.37,2013-03-10 08:04:00,
2013-03-10 03:05:00,35.1,31.9,29.74,South,188,2.8,6.9,88,0.04,RA,,0.08,WeatherDisplay:10.37,2013-03-10 08:05:00,
2013-03-10 03:06:00,35.1,31.9,29.74,SSE,165,1.7,4.6,88,0.04,RA,,0.08,WeatherDisplay:10.37,2013-03-10 08:06:00,
2013-03-10 03:07:00,35.1,31.9,29.74,SE,133,1.0,2.5,88,0.04,RA,,0.08,WeatherDisplay:10.37,2013-03-10 08:07:00,
2013-03-10 03:10:00,35.1,31.9,29.74,South,181,0.6,2.3,88,0.04,RA,,0.08,WeatherDisplay:10.37,2013-03-10 08:10:00,
2013-03-10 03:11:00,35.1,31.9,29.74,SSE,150,2.4,4.6,88,0.04,,,0.08,WeatherDisplay:10.37,2013-03-10 08:11:00,
2013-03-10 03:12:00,35.2,32.0,29.73,SSW,192,1.6,3.5,88,0.04,,,0.08,WeatherDisplay:10.37,2013-03-10 08:12:00,
2013-03-10 03:15:00,35.1,31.9,29.73,SW,234,2.1,3.5,88,0.05,RA,,0.09,WeatherDisplay:10.37,2013-03-10 08:15:00,
2013-03-10 03:16:00,35.1,31.9,29.73,SSE,162,2.1,5.8,88,0.05,RA,,0.09,WeatherDisplay:10.37,2013-03-10 08:16:00,
2013-03-10 03:17:00,35.1,31.9,29.73,SW,227,3.7,4.4,88,0.04,RA,,0.09,WeatherDisplay:10.37,2013-03-10 08:17:00,
2013-03-10 03:20:00,35.1,31.9,29.73,SSW,200,1.1,1.6,88,0.04,RA,,0.09,WeatherDisplay:10.37,2013-03-10 08:20:00,
2013-03-10 03:21:00,35.1,31.9,29.73,SSW,210,3.3,3.4,88,0.04,RA,,0.10,WeatherDisplay:10.37,2013-03-10 08:21:00,
2013-03-10 03:22:00,35.1,31.9,29.73,SW,219,2.0,6.9,88,0.05,RA,,0.10,WeatherDisplay:10.37,2013-03-10 08:22:00,
2013-03-10 03:25:00,35.2,32.0,29.73,SSW,206,3.5,5.8,88,0.05,RA,,0.10,WeatherDisplay:10.37,2013-03-10 08:25:00,
2013-03-10 03:26:00,35.3,32.1,29.73,SSW,199,0.8,2.3,88,0.05,RA,,0.10,WeatherDisplay:10.37,2013-03-10 08:26:00,
2013-03-10 03:27:00,35.2,32.0,29.73,SW,222,2.3,3.0,88,0.05,RA,,0.10,WeatherDisplay:10.37,2013-03-10 08:27:00,
2013-03-10 03:30:00,35.4,32.2,29.73,SSE,167,0.8,2.3,88,0.05,RA,,0.11,WeatherDisplay:10.37,2013-03-10 08:30:00,
2013-03-10 03:31:00,35.3,32.1,29.73,SW,217,0.8,3.4,88,0.06,RA,,0.11,WeatherDisplay:10.37,2013-03-10 08:31:00,
2013-03-10 03:32:00,35.3,32.1,29.73,SW,226,0.3,1.7,88,0.06,RA,,0.11,WeatherDisplay:10.37,2013-03-10 08:32:00,
2013-03-10 03:35:00,35.3,32.1,29.73,SSW,213,0.1,2.3,88,0.05,RA,,0.11,WeatherDisplay:10.37,2013-03-10 08:35:00,
2013-03-10 03:36:00,35.3,32.1,29.73,SSW,213,0.1,0.0,88,0.05,RA,,0.11,WeatherDisplay:10.37,2013-03-10 08:36:00,
2013-03-10 03:37:00,35.3,32.1,29.73,SSW,213,0.0,0.7,88,0.05,RA,,0.11,WeatherDisplay:10.37,2013-03-10 08:37:00,
2013-03-10 03:41:00,35.3,32.1,29.73,SSE,151,0.0,0.0,88,0.06,RA,,0.12,WeatherDisplay:10.37,2013-03-10 08:41:00,
2013-03-10 03:42:00,35.4,32.2,29.73,SSE,151,0.0,0.0,88,0.06,RA,,0.12,WeatherDisplay:10.37,2013-03-10 08:42:00,
2013-03-10 03:43:00,35.3,32.1,29.73,SSE,151,0.0,0.0,88,0.06,RA,,0.12,WeatherDisplay:10.37,2013-03-10 08:43:00,
2013-03-10 03:46:00,35.3,32.1,29.73,SSE,151,0.0,0.0,88,0.06,RA,,0.12,WeatherDisplay:10.37,2013-03-10 08:46:00,
2013-03-10 03:47:00,35.3,32.1,29.73,SSE,151,0.0,0.0,88,0.06,RA,,0.12,WeatherDisplay:10.37,2013-03-10 08:47:00,
2013-03-10 03:48:00,35.3,32.1,29.73,SSE,151,0.0,0.0,88,0.06,RA,,0.12,WeatherDisplay:10.37,2013-03-10 08:48:00,
2013-03-10 03:51:00,35.3,32.1,29.73,SSE,151,0.0,0.0,88,0.06,RA,,0.13,WeatherDisplay:10.37,2013-03-10 08:51:00,
2013-03-10 03:52:00,35.3,32.1,29.72,SSE,151,0.0,0.0,88,0.06,RA,,0.13,WeatherDisplay:10.37,2013-03-10 08:52:00,
2013-03-10 03:53:00,35.2,32.0,29.72,SSE,151,0.0,0.0,88,0.06,RA,,0.13,WeatherDisplay:10.37,2013-03-10 08:53:00,
2013-03-10 03:56:00,35.2,32.0,29.72,South,182,0.0,0.0,88,0.06,RA,,0.13,WeatherDisplay:10.37,2013-03-10 08:56:00,
2013-03-10 03:57:00,35.1,31.9,29.72,South,182,0.0,0.0,88,0.06,RA,,0.13,WeatherDisplay:10.37,2013-03-10 08:57:00,
2013-03-10 03:58:00,35.2,32.0,29.72,South,182,0.0,0.0,88,0.07,RA,,0.14,WeatherDisplay:10.37,2013-03-10 08:58:00,
2013-03-10 04:01:00,35.2,32.0,29.72,South,182,0.0,0.0,88,0.06,RA,,0.14,WeatherDisplay:10.37,2013-03-10 09:01:00,
2013-03-10 04:02:00,35.1,31.9,29.72,South,182,0.0,0.0,88,0.06,RA,,0.14,WeatherDisplay:10.37,2013-03-10 09:02:00,
2013-03-10 04:03:00,35.2,32.0,29.72,South,182,0.0,0.0,88,0.06,RA,,0.14,WeatherDisplay:10.37,2013-03-10 09:03:00,
2013-03-10 04:06:00,35.2,32.0,29.72,South,182,0.0,0.0,88,0.06,RA,,0.14,WeatherDisplay:10.37,2013-03-10 09:06:00,
2013-03-10 04:07:00,35.2,32.0,29.71,South,182,0.0,0.0,88,0.06,,,0.14,WeatherDisplay:10.37,2013-03-10 09:07:00,
2013-03-10 04:08:00,35.1,31.9,29.71,South,182,0.0,0.0,88,0.06,,,0.14,WeatherDisplay:10.37,2013-03-10 09:08:00,
2013-03-10 04:09:00,35.1,31.9,29.71,South,182,0.0,0.0,88,0.06,,,0.14,WeatherDisplay:10.37,2013-03-10 09:09:00,
2013-03-10 04:11:00,35.1,31.9,29.71,South,182,0.0,0.0,88,0.06,CLR,,0.14,WeatherDisplay:10.37,2013-03-10 09:11:00,
2013-03-10 04:13:00,35.1,31.9,29.71,South,182,0.0,0.0,88,0.06,CLR,,0.14,WeatherDisplay:10.37,2013-03-10 09:13:00,
2013-03-10 04:15:00,35.2,32.0,29.71,South,182,0.0,0.0,88,0.05,CLR,,0.14,WeatherDisplay:10.37,2013-03-10 09:15:00,
2013-03-10 04:16:00,35.3,32.1,29.71,South,182,0.0,0.0,88,0.06,RA,,0.15,WeatherDisplay:10.37,2013-03-10 09:16:00,
2013-03-10 04:18:00,35.2,32.0,29.70,South,182,0.0,0.0,88,0.06,RA,,0.15,WeatherDisplay:10.37,2013-03-10 09:18:00,
2013-03-10 04:20:00,35.1,31.9,29.70,South,182,0.0,0.0,88,0.06,RA,,0.15,WeatherDisplay:10.37,2013-03-10 09:20:00,
2013-03-10 04:21:00,35.2,32.0,29.70,South,182,0.0,0.0,88,0.06,RA,,0.15,WeatherDisplay:10.37,2013-03-10 09:21:00,
2013-03-10 04:23:00,35.1,31.9,29.70,South,182,0.0,0.0,88,0.05,RA,,0.15,WeatherDisplay:10.37,2013-03-10 09:23:00,
2013-03-10 04:24:00,35.2,32.0,29.70,South,182,0.0,0.0,88,0.05,RA,,0.15,WeatherDisplay:10.37,2013-03-10 09:24:00,
2013-03-10 04:25:00,35.1,31.9,29.70,SE,130,2.9,4.0,88,0.05,RA,,0.16,WeatherDisplay:10.37,2013-03-10 09:25:00,
2013-03-10 04:26:00,35.2,32.0,29.70,ESE,106,2.2,4.6,88,0.06,RA,,0.16,WeatherDisplay:10.37,2013-03-10 09:26:00,
2013-03-10 04:28:00,35.2,32.0,29.70,SE,143,1.6,1.6,88,0.06,RA,,0.16,WeatherDisplay:10.37,2013-03-10 09:28:00,
2013-03-10 04:29:00,35.2,32.0,29.70,SSE,157,1.6,3.5,88,0.06,RA,,0.16,WeatherDisplay:10.37,2013-03-10 09:29:00,
2013-03-10 04:30:00,35.3,32.1,29.70,ESE,104,1.3,3.5,88,0.05,RA,,0.16,WeatherDisplay:10.37,2013-03-10 09:30:00,
2013-03-10 04:31:00,35.2,32.0,29.70,ESE,104,0.3,3.5,88,0.05,RA,,0.16,WeatherDisplay:10.37,2013-03-10 09:31:00,
2013-03-10 04:33:00,35.2,32.0,29.70,SE,127,1.2,4.6,88,0.05,RA,,0.16,WeatherDisplay:10.37,2013-03-10 09:33:00,
2013-03-10 04:34:00,35.2,32.0,29.70,South,178,1.0,2.7,88,0.05,RA,,0.16,WeatherDisplay:10.37,2013-03-10 09:34:00,
2013-03-10 04:35:00,35.3,32.1,29.70,SSE,164,0.1,2.8,88,0.05,,,0.16,WeatherDisplay:10.37,2013-03-10 09:35:00,
2013-03-10 04:36:00,35.3,32.1,29.70,South,181,2.8,3.5,88,0.06,RA,,0.17,WeatherDisplay:10.37,2013-03-10 09:36:00,
2013-03-10 04:39:00,35.3,32.1,29.70,SE,138,1.6,4.6,88,0.06,RA,,0.17,WeatherDisplay:10.37,2013-03-10 09:39:00,
2013-03-10 04:40:00,35.4,32.2,29.70,SE,136,1.8,4.6,88,0.05,RA,,0.17,WeatherDisplay:10.37,2013-03-10 09:40:00,
2013-03-10 04:42:00,35.3,32.1,29.70,East,79,1.3,3.5,88,0.05,RA,,0.17,WeatherDisplay:10.37,2013-03-10 09:42:00,
2013-03-10 04:44:00,35.4,32.2,29.70,SE,141,0.3,2.4,88,0.05,RA,,0.17,WeatherDisplay:10.37,2013-03-10 09:44:00,
2013-03-10 04:45:00,35.4,32.2,29.70,SSE,165,2.2,3.5,88,0.05,RA,,0.18,WeatherDisplay:10.37,2013-03-10 09:45:00,
2013-03-10 04:47:00,35.5,32.3,29.70,South,172,1.3,3.5,88,0.06,RA,,0.18,WeatherDisplay:10.37,2013-03-10 09:47:00,
2013-03-10 04:49:00,35.6,32.4,29.71,SSW,192,3.6,4.6,88,0.06,RA,,0.18,WeatherDisplay:10.37,2013-03-10 09:49:00,
2013-03-10 04:52:00,35.4,32.2,29.71,SSW,203,4.6,5.8,88,0.06,RA,,0.19,WeatherDisplay:10.37,2013-03-10 09:52:00,
2013-03-10 04:54:00,35.6,32.4,29.71,South,184,3.0,5.8,88,0.06,RA,,0.20,WeatherDisplay:10.37,2013-03-10 09:54:00,
2013-03-10 04:57:00,35.6,32.4,29.71,SSW,212,3.0,6.2,88,0.08,RA,,0.21,WeatherDisplay:10.37,2013-03-10 09:57:00,
2013-03-10 04:59:00,35.6,32.4,29.71,South,174,4.0,7.3,88,0.08,RA,,0.22,WeatherDisplay:10.37,2013-03-10 09:59:00,
2013-03-10 05:02:00,35.6,32.4,29.71,SSW,212,2.8,5.8,88,0.09,RA,,0.23,WeatherDisplay:10.37,2013-03-10 10:02:00,
2013-03-10 05:04:00,35.7,32.5,29.71,SSW,200,4.1,5.8,88,0.09,RA,,0.23,WeatherDisplay:10.37,2013-03-10 10:04:00,
2013-03-10 05:05:00,35.8,32.6,29.71,SSE,165,3.5,6.9,88,0.09,RA,,0.23,WeatherDisplay:10.37,2013-03-10 10:05:00,
2013-03-10 05:07:00,35.7,32.5,29.71,SSW,213,3.5,5.8,88,0.09,RA,,0.23,WeatherDisplay:10.37,2013-03-10 10:07:00,
2013-03-10 05:09:00,35.8,32.6,29.71,South,186,2.7,3.9,88,0.09,RA,,0.23,WeatherDisplay:10.37,2013-03-10 10:09:00,
2013-03-10 05:10:00,35.7,32.5,29.71,SSW,203,2.6,3.5,88,0.09,RA,,0.23,WeatherDisplay:10.37,2013-03-10 10:10:00,
2013-03-10 05:12:00,35.8,32.6,29.71,SSW,198,2.1,3.9,88,0.09,,,0.23,WeatherDisplay:10.37,2013-03-10 10:12:00,
2013-03-10 05:15:00,35.8,32.6,29.71,South,189,4.3,5.8,88,0.09,CLR,,0.23,WeatherDisplay:10.37,2013-03-10 10:15:00,
2013-03-10 05:17:00,35.8,32.6,29.71,SW,229,2.8,4.6,88,0.08,CLR,,0.23,WeatherDisplay:10.37,2013-03-10 10:17:00,
2013-03-10 05:18:00,35.9,32.7,29.71,SSW,206,2.1,4.6,88,0.08,CLR,,0.23,WeatherDisplay:10.37,2013-03-10 10:18:00,
2013-03-10 05:20:00,35.8,32.6,29.71,SSW,198,2.0,4.6,88,0.08,CLR,,0.23,WeatherDisplay:10.37,2013-03-10 10:20:00,
2013-03-10 05:22:00,35.8,32.6,29.71,SW,217,2.5,4.0,88,0.08,CLR,,0.23,WeatherDisplay:10.37,2013-03-10 10:22:00,
2013-03-10 05:23:00,35.9,32.7,29.71,SW,230,3.4,4.6,88,0.08,CLR,,0.23,WeatherDisplay:10.37,2013-03-10 10:23:00,
2013-03-10 05:25:00,35.9,32.7,29.71,West,260,1.5,3.5,88,0.08,CLR,,0.23,WeatherDisplay:10.37,2013-03-10 10:25:00,
2013-03-10 05:27:00,36.1,32.9,29.71,West,274,0.0,0.0,88,0.07,CLR,,0.23,WeatherDisplay:10.37,2013-03-10 10:27:00,
2013-03-10 05:28:00,36.0,32.8,29.71,West,274,0.0,0.0,88,0.07,CLR,,0.23,WeatherDisplay:10.37,2013-03-10 10:28:00,
2013-03-10 05:30:00,36.0,32.8,29.71,SW,220,1.6,2.3,88,0.07,CLR,,0.23,WeatherDisplay:10.37,2013-03-10 10:30:00,
2013-03-10 05:32:00,36.0,32.8,29.71,SW,219,0.0,0.0,88,0.07,CLR,,0.23,WeatherDisplay:10.37,2013-03-10 10:32:00,
2013-03-10 05:33:00,36.1,32.9,29.71,SW,219,0.0,0.0,88,0.07,CLR,,0.23,WeatherDisplay:10.37,2013-03-10 10:33:00,
2013-03-10 05:35:00,36.1,32.9,29.71,SW,219,0.0,0.0,88,0.07,CLR,,0.24,WeatherDisplay:10.37,2013-03-10 10:35:00,
2013-03-10 05:38:00,36.0,32.8,29.71,SW,219,0.0,0.0,88,0.07,RA,,0.24,WeatherDisplay:10.37,2013-03-10 10:38:00,
2013-03-10 05:40:00,36.0,32.8,29.71,SW,219,0.0,0.0,88,0.07,RA,,0.25,WeatherDisplay:10.37,2013-03-10 10:40:00,
2013-03-10 05:43:00,36.0,32.8,29.72,SW,219,0.0,0.0,88,0.08,RA,,0.25,WeatherDisplay:10.37,2013-03-10 10:43:00,
2013-03-10 05:45:00,36.1,32.9,29.72,NW,325,0.9,2.3,88,0.09,RA,,0.26,WeatherDisplay:10.37,2013-03-10 10:45:00,
2013-03-10 05:46:00,36.0,32.8,29.72,NW,304,1.0,2.3,88,0.09,RA,,0.26,WeatherDisplay:10.37,2013-03-10 10:46:00,
2013-03-10 05:48:00,36.1,32.9,29.72,NW,304,0.0,0.0,88,0.09,RA,,0.27,WeatherDisplay:10.37,2013-03-10 10:48:00,
2013-03-10 05:50:00,36.0,32.8,29.72,NW,304,0.0,0.0,88,0.09,RA,,0.27,WeatherDisplay:10.37,2013-03-10 10:50:00,
2013-03-10 05:51:00,36.0,32.8,29.72,NW,304,0.0,0.0,88,0.09,RA,,0.27,WeatherDisplay:10.37,2013-03-10 10:51:00,
2013-03-10 05:53:00,36.0,32.8,29.72,NW,304,0.0,0.0,88,0.09,RA,,0.28,WeatherDisplay:10.37,2013-03-10 10:53:00,
2013-03-10 05:55:00,35.9,32.7,29.72,NW,304,0.0,0.0,88,0.09,RA,,0.29,WeatherDisplay:10.37,2013-03-10 10:55:00,
2013-03-10 05:56:00,35.8,32.6,29.72,NW,304,0.0,0.0,88,0.09,RA,,0.29,WeatherDisplay:10.37,2013-03-10 10:56:00,
2013-03-10 05:58:00,35.9,32.7,29.72,NW,304,0.0,0.0,88,0.08,RA,,0.30,WeatherDisplay:10.37,2013-03-10 10:58:00,
2013-03-10 05:59:00,35.9,32.7,29.72,NW,304,0.0,0.0,88,0.08,RA,,0.30,WeatherDisplay:10.37,2013-03-10 10:59:00,
2013-03-10 06:01:00,35.8,32.6,29.72,NW,304,0.0,0.0,88,0.08,RA,,0.30,WeatherDisplay:10.37,2013-03-10 11:01:00,
2013-03-10 06:03:00,35.9,32.7,29.72,NW,304,0.0,0.0,88,0.08,RA,,0.31,WeatherDisplay:10.37,2013-03-10 11:03:00,
2013-03-10 06:04:00,35.8,32.6,29.72,NW,304,0.0,0.0,88,0.08,RA,,0.31,WeatherDisplay:10.37,2013-03-10 11:04:00,
2013-03-10 06:06:00,35.7,32.5,29.72,NW,304,0.0,0.0,88,0.08,RA,,0.31,WeatherDisplay:10.37,2013-03-10 11:06:00,
2013-03-10 06:07:00,35.7,32.5,29.72,NW,304,0.0,0.0,88,0.08,RA,,0.32,WeatherDisplay:10.37,2013-03-10 11:07:00,
2013-03-10 06:08:00,35.7,32.5,29.72,NW,304,0.0,0.0,88,0.09,RA,,0.32,WeatherDisplay:10.37,2013-03-10 11:08:00,
2013-03-10 06:09:00,35.7,32.5,29.73,NW,304,0.0,0.0,88,0.09,RA,,0.32,WeatherDisplay:10.37,2013-03-10 11:09:00,
2013-03-10 06:11:00,35.7,32.5,29.72,NW,304,0.0,0.0,88,0.09,RA,,0.32,WeatherDisplay:10.37,2013-03-10 11:11:00,
2013-03-10 06:12:00,35.7,32.5,29.72,NW,304,0.0,0.0,88,0.09,RA,,0.32,WeatherDisplay:10.37,2013-03-10 11:12:00,
2013-03-10 06:14:00,35.6,32.4,29.73,NW,304,0.0,0.0,88,0.09,RA,,0.32,WeatherDisplay:10.37,2013-03-10 11:14:00,
2013-03-10 06:16:00,35.5,32.3,29.72,NW,304,0.0,0.0,88,0.10,RA,,0.33,WeatherDisplay:10.37,2013-03-10 11:16:00,
2013-03-10 06:17:00,35.5,32.3,29.72,NW,304,0.0,0.0,88,0.10,RA,,0.33,WeatherDisplay:10.37,2013-03-10 11:17:00,
2013-03-10 06:19:00,35.6,32.4,29.72,NW,304,0.0,0.0,88,0.10,RA,,0.33,WeatherDisplay:10.37,2013-03-10 11:19:00,
2013-03-10 06:20:00,35.4,32.2,29.72,NW,304,0.0,0.0,88,0.10,RA,,0.33,WeatherDisplay:10.37,2013-03-10 11:20:00,
2013-03-10 06:21:00,35.4,32.2,29.71,NW,304,0.0,0.0,88,0.10,RA,,0.33,WeatherDisplay:10.37,2013-03-10 11:21:00,
2013-03-10 06:22:00,35.3,32.1,29.71,ESE,109,0.5,0.0,88,0.10,RA,,0.33,WeatherDisplay:10.37,2013-03-10 11:22:00,
2013-03-10 06:24:00,35.3,32.1,29.71,ESE,109,0.0,0.0,88,0.10,RA,,0.33,WeatherDisplay:10.37,2013-03-10 11:24:00,
2013-03-10 06:25:00,35.2,32.0,29.71,ESE,109,0.0,0.0,88,0.10,,,0.33,WeatherDisplay:10.37,2013-03-10 11:25:00,
2013-03-10 06:26:00,35.2,32.0,29.71,ESE,109,0.0,0.0,88,0.10,,,0.33,WeatherDisplay:10.37,2013-03-10 11:26:00,
2013-03-10 06:27:00,35.2,32.0,29.71,ESE,109,0.0,0.0,88,0.10,CLR,,0.33,WeatherDisplay:10.37,2013-03-10 11:27:00,
2013-03-10 06:29:00,35.2,32.0,29.70,ESE,109,0.0,0.0,88,0.10,CLR,,0.34,WeatherDisplay:10.37,2013-03-10 11:29:00,
2013-03-10 06:30:00,35.1,31.9,29.70,ESE,109,0.0,0.0,88,0.11,RA,,0.34,WeatherDisplay:10.37,2013-03-10 11:30:00,
2013-03-10 06:32:00,35.1,31.9,29.70,ESE,109,0.0,0.0,88,0.11,RA,,0.34,WeatherDisplay:10.37,2013-03-10 11:32:00,
2013-03-10 06:33:00,35.2,32.0,29.70,SSE,155,1.0,3.5,88,0.11,RA,,0.34,WeatherDisplay:10.37,2013-03-10 11:33:00,
2013-03-10 06:34:00,35.1,31.9,29.70,ESE,120,2.3,4.6,88,0.11,RA,,0.34,WeatherDisplay:10.37,2013-03-10 11:34:00,
2013-03-10 06:36:00,35.1,32.2,29.69,ESE,120,2.5,4.6,89,0.10,RA,,0.34,WeatherDisplay:10.37,2013-03-10 11:36:00,
2013-03-10 06:37:00,35.1,32.2,29.69,East,92,3.3,5.8,89,0.10,RA,,0.34,WeatherDisplay:10.37,2013-03-10 11:37:00,
2013-03-10 06:38:00,35.1,32.2,29.69,East,97,0.6,2.3,89,0.10,RA,,0.34,WeatherDisplay:10.37,2013-03-10 11:38:00,
2013-03-10 06:39:00,35.0,32.1,29.69,SSE,148,2.6,4.0,89,0.10,RA,,0.34,WeatherDisplay:10.37,2013-03-10 11:39:00,
2013-03-10 06:41:00,35.0,32.1,29.69,ESE,120,3.2,5.8,89,0.09,,,0.34,WeatherDisplay:10.37,2013-03-10 11:41:00,
2013-03-10 06:42:00,35.1,32.2,29.68,SE,131,2.5,5.8,89,0.09,CLR,,0.34,WeatherDisplay:10.37,2013-03-10 11:42:00,
2013-03-10 06:43:00,35.1,32.2,29.68,SE,128,3.1,5.8,89,0.09,CLR,,0.34,WeatherDisplay:10.37,2013-03-10 11:43:00,
2013-03-10 06:44:00,35.2,32.3,29.68,East,95,2.2,5.8,89,0.08,CLR,,0.34,WeatherDisplay:10.37,2013-03-10 11:44:00,
2013-03-10 06:46:00,35.3,32.4,29.67,East,86,4.0,4.6,89,0.08,CLR,,0.34,WeatherDisplay:10.37,2013-03-10 11:46:00,
2013-03-10 06:47:00,35.2,32.3,29.67,East,100,4.9,6.9,89,0.07,CLR,,0.34,WeatherDisplay:10.37,2013-03-10 11:47:00,
2013-03-10 06:48:00,35.3,32.4,29.67,East,95,5.1,5.8,89,0.07,CLR,,0.34,WeatherDisplay:10.37,2013-03-10 11:48:00,
2013-03-10 06:49:00,35.3,32.4,29.67,ESE,117,4.8,6.9,89,0.07,CLR,,0.34,WeatherDisplay:10.37,2013-03-10 11:49:00,
2013-03-10 06:51:00,35.4,32.5,29.66,ENE,73,5.0,5.8,89,0.07,CLR,,0.34,WeatherDisplay:10.37,2013-03-10 11:51:00,
2013-03-10 06:53:00,35.4,32.5,29.66,SE,128,4.1,5.8,89,0.06,CLR,,0.34,WeatherDisplay:10.37,2013-03-10 11:53:00,
2013-03-10 06:54:00,35.5,32.6,29.66,SE,128,5.2,6.9,89,0.06,CLR,,0.35,WeatherDisplay:10.37,2013-03-10 11:54:00,
2013-03-10 06:56:00,35.6,32.7,29.66,SE,128,4.4,6.9,89,0.06,RA,,0.35,WeatherDisplay:10.37,2013-03-10 11:56:00,
2013-03-10 06:58:00,35.7,32.8,29.66,ESE,104,4.3,6.2,89,0.06,RA,,0.35,WeatherDisplay:10.37,2013-03-10 11:58:00,
2013-03-10 06:59:00,35.7,32.8,29.67,SE,128,4.0,6.9,89,0.05,RA,,0.35,WeatherDisplay:10.37,2013-03-10 11:59:00,
2013-03-10 07:02:00,35.7,32.8,29.68,SE,137,0.8,2.3,89,0.05,RA,,0.35,WeatherDisplay:10.37,2013-03-10 12:02:00,
2013-03-10 07:03:00,35.8,32.9,29.68,ENE,76,0.9,4.6,89,0.04,RA,,0.35,WeatherDisplay:10.37,2013-03-10 12:03:00,
2013-03-10 07:04:00,35.7,32.8,29.69,ESE,106,0.2,4.6,89,0.04,RA,,0.35,WeatherDisplay:10.37,2013-03-10 12:04:00,
2013-03-10 07:07:00,35.8,32.9,29.69,ESE,106,0.2,1.0,89,0.04,CLR,,0.35,WeatherDisplay:10.37,2013-03-10 12:07:00,
2013-03-10 07:08:00,35.9,33.0,29.69,ESE,106,0.0,0.0,89,0.03,CLR,,0.35,WeatherDisplay:10.37,2013-03-10 12:08:00,
2013-03-10 07:09:00,35.8,32.9,29.69,ESE,106,0.0,0.0,89,0.03,CLR,,0.35,WeatherDisplay:10.37,2013-03-10 12:09:00,
2013-03-10 07:10:00,35.9,33.0,29.69,ESE,106,0.0,0.0,89,0.03,CLR,,0.35,WeatherDisplay:10.37,2013-03-10 12:10:00,
2013-03-10 07:12:00,35.9,33.0,29.69,ESE,106,0.0,0.0,89,0.03,CLR,,0.35,WeatherDisplay:10.37,2013-03-10 12:12:00,
2013-03-10 07:14:00,35.8,32.9,29.68,ENE,58,1.6,3.4,89,0.03,CLR,,0.35,WeatherDisplay:10.37,2013-03-10 12:14:00,
2013-03-10 07:15:00,35.8,32.9,29.67,NE,34,2.4,3.5,89,0.02,CLR,,0.35,WeatherDisplay:10.37,2013-03-10 12:15:00,
2013-03-10 07:17:00,35.8,32.9,29.66,SE,141,2.6,5.8,89,0.02,CLR,,0.35,WeatherDisplay:10.37,2013-03-10 12:17:00,
2013-03-10 07:19:00,35.8,32.9,29.66,ENE,75,0.0,0.0,89,0.02,CLR,,0.35,WeatherDisplay:10.37,2013-03-10 12:19:00,
2013-03-10 07:20:00,35.9,33.0,29.66,ENE,75,0.0,0.0,89,0.02,CLR,,0.35,WeatherDisplay:10.37,2013-03-10 12:20:00,
2013-03-10 07:22:00,35.8,32.9,29.67,ENE,75,0.0,0.0,89,0.02,CLR,,0.35,WeatherDisplay:10.37,2013-03-10 12:22:00,
2013-03-10 07:24:00,35.9,33.0,29.68,ENE,75,0.0,0.0,89,0.02,CLR,,0.35,WeatherDisplay:10.37,2013-03-10 12:24:00,
2013-03-10 07:25:00,35.9,33.0,29.68,ENE,75,0.0,0.0,89,0.02,CLR,,0.35,WeatherDisplay:10.37,2013-03-10 12:25:00,
2013-03-10 07:27:00,35.9,33.0,29.69,WNW,301,0.5,1.1,89,0.02,CLR,,0.35,WeatherDisplay:10.37,2013-03-10 12:27:00,
2013-03-10 07:29:00,35.9,33.0,29.70,North,1,2.7,4.6,89,0.01,CLR,,0.35,WeatherDisplay:10.37,2013-03-10 12:29:00,
2013-03-10 07:30:00,35.9,33.0,29.70,NW,318,2.7,4.6,89,0.01,CLR,,0.35,WeatherDisplay:10.37,2013-03-10 12:30:00,
2013-03-10 07:32:00,36.0,33.1,29.71,West,268,0.8,3.5,89,0.01,CLR,,0.35,WeatherDisplay:10.37,2013-03-10 12:32:00,
2013-03-10 07:35:00,35.9,33.0,29.71,NW,313,2.3,4.6,89,0.01,CLR,,0.35,WeatherDisplay:10.37,2013-03-10 12:35:00,
2013-03-10 07:37:00,35.9,33.0,29.72,NW,306,2.1,4.6,89,0.01,CLR,,0.35,WeatherDisplay:10.37,2013-03-10 12:37:00,
2013-03-10 07:40:00,35.9,33.0,29.72,WNW,292,0.0,0.0,89,0.01,CLR,,0.35,WeatherDisplay:10.37,2013-03-10 12:40:00,
2013-03-10 07:42:00,35.9,33.0,29.72,WNW,292,0.0,0.0,89,0.01,CLR,,0.35,WeatherDisplay:10.37,2013-03-10 12:42:00,
2013-03-10 07:45:00,35.9,33.0,29.72,WNW,292,0.0,0.0,89,0.01,CLR,,0.35,WeatherDisplay:10.37,2013-03-10 12:45:00,
2013-03-10 07:47:00,35.9,33.0,29.72,WNW,292,0.0,0.0,89,0.01,CLR,,0.35,WeatherDisplay:10.37,2013-03-10 12:47:00,
2013-03-10 07:50:00,35.8,32.9,29.72,WNW,292,0.0,0.0,89,0.01,CLR,,0.35,WeatherDisplay:10.37,2013-03-10 12:50:00,
2013-03-10 07:52:00,35.7,32.8,29.72,WNW,292,0.0,0.0,89,0.01,CLR,,0.35,WeatherDisplay:10.37,2013-03-10 12:52:00,
2013-03-10 07:55:00,35.6,32.7,29.72,WNW,292,0.1,0.0,89,0.00,CLR,,0.35,WeatherDisplay:10.37,2013-03-10 12:55:00,
2013-03-10 07:57:00,35.6,32.7,29.72,WNW,292,0.0,0.0,89,0.00,CLR,,0.35,WeatherDisplay:10.37,2013-03-10 12:57:00,
2013-03-10 08:00:00,35.5,32.6,29.73,SSE,167,0.4,1.1,89,0.00,CLR,,0.35,WeatherDisplay:10.37,2013-03-10 13:00:00,
2013-03-10 08:02:00,35.4,32.5,29.73,East,99,0.0,2.3,89,0.00,CLR,,0.35,WeatherDisplay:10.37,2013-03-10 13:02:00,
2013-03-10 08:05:00,35.4,32.5,29.73,East,99,0.0,0.0,89,0.00,CLR,,0.35,WeatherDisplay:10.37,2013-03-10 13:05:00,
2013-03-10 08:06:00,35.4,32.5,29.73,East,99,0.0,0.0,89,0.00,CLR,,0.35,WeatherDisplay:10.37,2013-03-10 13:06:00,
2013-03-10 08:08:00,35.2,32.3,29.73,East,99,0.0,0.0,89,0.00,CLR,,0.35,WeatherDisplay:10.37,2013-03-10 13:08:00,
2013-03-10 08:10:00,35.4,32.5,29.73,East,99,0.0,0.0,89,0.00,CLR,,0.35,WeatherDisplay:10.37,2013-03-10 13:10:00,
2013-03-10 08:12:00,35.2,32.3,29.73,East,99,0.0,0.0,89,0.00,CLR,,0.35,WeatherDisplay:10.37,2013-03-10 13:12:00,
2013-03-10 08:13:00,35.2,32.3,29.73,East,99,0.0,0.0,89,0.00,CLR,,0.35,WeatherDisplay:10.37,2013-03-10 13:13:00,
2013-03-10 08:15:00,35.3,32.4,29.73,East,99,0.0,0.0,89,0.00,CLR,,0.35,WeatherDisplay:10.37,2013-03-10 13:15:00,
2013-03-10 08:17:00,35.2,32.3,29.73,East,99,0.0,0.0,89,0.00,CLR,,0.35,WeatherDisplay:10.37,2013-03-10 13:17:00,
2013-03-10 08:18:00,35.2,32.3,29.73,East,99,0.0,0.0,89,0.00,CLR,,0.35,WeatherDisplay:10.37,2013-03-10 13:18:00,
2013-03-10 08:20:00,35.2,32.3,29.73,East,99,0.0,0.0,89,0.00,CLR,,0.35,WeatherDisplay:10.37,2013-03-10 13:20:00,
2013-03-10 08:21:00,35.2,32.3,29.73,East,99,0.0,0.0,89,0.00,CLR,,0.35,WeatherDisplay:10.37,2013-03-10 13:21:00,
2013-03-10 08:22:00,35.2,32.3,29.74,East,99,0.0,0.0,89,0.00,CLR,,0.35,WeatherDisplay:10.37,2013-03-10 13:22:00,
2013-03-10 08:23:00,35.3,32.4,29.74,East,99,0.0,0.0,89,0.00,CLR,,0.35,WeatherDisplay:10.37,2013-03-10 13:23:00,
2013-03-10 08:25:00,35.2,32.3,29.74,East,99,0.0,0.0,89,0.00,CLR,,0.35,WeatherDisplay:10.37,2013-03-10 13:25:00,
2013-03-10 08:26:00,35.2,32.3,29.74,East,99,0.0,0.0,89,0.00,CLR,,0.35,WeatherDisplay:10.37,2013-03-10 13:26:00,
2013-03-10 08:28:00,35.1,32.2,29.75,East,99,0.0,0.0,89,0.00,CLR,,0.35,WeatherDisplay:10.37,2013-03-10 13:28:00,
2013-03-10 08:30:00,35.1,32.2,29.75,East,99,0.0,0.0,89,0.00,CLR,,0.35,WeatherDisplay:10.37,2013-03-10 13:30:00,
2013-03-10 08:31:00,35.1,32.2,29.75,East,99,0.0,0.0,89,0.00,CLR,,0.35,WeatherDisplay:10.37,2013-03-10 13:31:00,
2013-03-10 08:33:00,35.1,32.2,29.76,East,99,0.0,0.0,89,0.00,CLR,,0.35,WeatherDisplay:10.37,2013-03-10 13:33:00,
2013-03-10 08:34:00,35.0,32.1,29.76,East,99,0.0,0.0,89,0.00,CLR,,0.35,WeatherDisplay:10.37,2013-03-10 13:34:00,
2013-03-10 08:35:00,35.0,32.1,29.76,East,99,0.0,0.0,89,0.00,CLR,,0.35,WeatherDisplay:10.37,2013-03-10 13:35:00,
2013-03-10 08:36:00,35.0,32.1,29.76,East,99,0.0,0.0,89,0.00,CLR,,0.35,WeatherDisplay:10.37,2013-03-10 13:36:00,
2013-03-10 08:38:00,35.0,32.1,29.77,East,99,0.0,0.0,89,0.00,CLR,,0.35,WeatherDisplay:10.37,2013-03-10 13:38:00,
2013-03-10 08:39:00,34.9,32.0,29.77,East,99,0.0,0.0,89,0.00,CLR,,0.35,WeatherDisplay:10.37,2013-03-10 13:39:00,
2013-03-10 08:40:00,34.9,32.0,29.77,East,99,0.0,0.0,89,0.00,CLR,,0.35,WeatherDisplay:10.37,2013-03-10 13:40:00,
2013-03-10 08:41:00,34.9,32.0,29.77,East,99,0.0,0.0,89,0.00,CLR,,0.35,WeatherDisplay:10.37,2013-03-10 13:41:00,
2013-03-10 08:44:00,34.9,32.0,29.77,SSE,147,1.6,2.3,89,0.00,CLR,,0.35,WeatherDisplay:10.37,2013-03-10 13:44:00,
2013-03-10 08:45:00,35.0,32.1,29.77,WSW,237,1.0,2.3,89,0.00,CLR,,0.35,WeatherDisplay:10.37,2013-03-10 13:45:00,
2013-03-10 08:46:00,35.0,32.1,29.77,SW,227,0.7,2.3,89,0.00,CLR,,0.35,WeatherDisplay:10.37,2013-03-10 13:46:00,
2013-03-10 08:49:00,35.1,32.2,29.77,SW,217,0.3,1.1,89,0.00,CLR,,0.35,WeatherDisplay:10.37,2013-03-10 13:49:00,
2013-03-10 08:51:00,35.0,32.1,29.77,SW,217,0.0,0.0,89,0.01,RA,,0.36,WeatherDisplay:10.37,2013-03-10 13:51:00,
2013-03-10 08:54:00,35.1,32.2,29.77,SW,217,0.0,0.0,89,0.01,RA,,0.36,WeatherDisplay:10.37,2013-03-10 13:54:00,
2013-03-10 08:56:00,35.2,32.3,29.76,SW,217,0.0,0.0,89,0.01,RA,,0.36,WeatherDisplay:10.37,2013-03-10 13:56:00,
2013-03-10 08:59:00,35.0,32.1,29.76,SW,217,0.0,0.0,89,0.02,RA,,0.37,WeatherDisplay:10.37,2013-03-10 13:59:00,
2013-03-10 09:00:00,35.1,32.2,29.76,SW,217,0.0,0.0,89,0.02,RA,,0.37,WeatherDisplay:10.37,2013-03-10 14:00:00,
2013-03-10 09:01:00,35.1,32.2,29.76,SW,217,0.0,0.0,89,0.02,RA,,0.37,WeatherDisplay:10.37,2013-03-10 14:01:00,
2013-03-10 09:04:00,35.1,32.2,29.75,SW,217,0.0,0.0,89,0.03,RA,,0.38,WeatherDisplay:10.37,2013-03-10 14:04:00,
2013-03-10 09:05:00,35.1,32.2,29.75,SW,217,0.0,0.0,89,0.03,RA,,0.38,WeatherDisplay:10.37,2013-03-10 14:05:00,
2013-03-10 09:06:00,35.1,32.2,29.75,SW,217,0.0,0.0,89,0.03,RA,,0.38,WeatherDisplay:10.37,2013-03-10 14:06:00,
2013-03-10 09:09:00,35.2,32.3,29.75,SW,217,0.0,0.0,89,0.03,RA,,0.38,WeatherDisplay:10.37,2013-03-10 14:09:00,
2013-03-10 09:10:00,35.2,32.3,29.75,SW,217,0.0,0.0,89,0.03,RA,,0.38,WeatherDisplay:10.37,2013-03-10 14:10:00,
2013-03-10 09:11:00,35.1,32.2,29.76,SW,217,0.0,0.0,89,0.03,RA,,0.38,WeatherDisplay:10.37,2013-03-10 14:11:00,
2013-03-10 09:14:00,35.2,32.3,29.76,SW,217,0.0,0.0,89,0.03,,,0.38,WeatherDisplay:10.37,2013-03-10 14:14:00,
2013-03-10 09:15:00,35.4,32.5,29.76,SW,217,0.0,0.0,89,0.03,,,0.39,WeatherDisplay:10.37,2013-03-10 14:15:00,
2013-03-10 09:16:00,35.5,32.6,29.76,SW,217,0.0,0.0,89,0.04,RA,,0.39,WeatherDisplay:10.37,2013-03-10 14:16:00,
2013-03-10 09:17:00,35.4,32.5,29.76,SW,217,0.0,0.0,89,0.04,RA,,0.39,WeatherDisplay:10.37,2013-03-10 14:17:00,
2013-03-10 09:19:00,35.4,32.5,29.76,SW,217,0.0,0.0,89,0.04,RA,,0.39,WeatherDisplay:10.37,2013-03-10 14:19:00,
2013-03-10 09:20:00,35.5,32.6,29.76,SW,217,0.0,0.0,89,0.04,RA,,0.39,WeatherDisplay:10.37,2013-03-10 14:20:00,
2013-03-10 09:21:00,35.5,32.6,29.76,SW,217,0.0,0.0,89,0.04,RA,,0.39,WeatherDisplay:10.37,2013-03-10 14:21:00,
2013-03-10 09:22:00,35.5,32.6,29.76,SW,217,0.0,0.0,89,0.04,RA,,0.39,WeatherDisplay:10.37,2013-03-10 14:22:00,
2013-03-10 09:24:00,35.7,32.8,29.76,SW,217,0.0,0.0,89,0.04,RA,,0.39,WeatherDisplay:10.37,2013-03-10 14:24:00,
2013-03-10 09:25:00,35.7,32.8,29.76,SW,217,0.0,0.0,89,0.04,RA,,0.39,WeatherDisplay:10.37,2013-03-10 14:25:00,
2013-03-10 09:27:00,35.7,32.8,29.76,SW,217,0.0,0.0,89,0.04,,,0.39,WeatherDisplay:10.37,2013-03-10 14:27:00,
2013-03-10 09:30:00,35.9,33.0,29.76,South,175,0.0,1.1,89,0.04,CLR,,0.39,WeatherDisplay:10.37,2013-03-10 14:30:00,
2013-03-10 09:32:00,36.0,33.1,29.76,South,175,0.0,0.0,89,0.04,CLR,,0.39,WeatherDisplay:10.37,2013-03-10 14:32:00,
2013-03-10 09:35:00,36.1,33.2,29.76,South,175,0.0,0.0,89,0.04,CLR,,0.39,WeatherDisplay:10.37,2013-03-10 14:35:00,
2013-03-10 09:37:00,36.2,33.3,29.76,South,175,0.0,0.0,89,0.04,CLR,,0.39,WeatherDisplay:10.37,2013-03-10 14:37:00,
2013-03-10 09:40:00,36.4,33.5,29.76,South,175,0.0,0.0,89,0.04,CLR,,0.39,WeatherDisplay:10.37,2013-03-10 14:40:00,
2013-03-10 09:41:00,36.3,33.4,29.76,South,175,0.0,0.0,89,0.04,CLR,,0.39,WeatherDisplay:10.37,2013-03-10 14:41:00,
2013-03-10 09:42:00,36.4,33.5,29.76,South,175,0.0,0.0,89,0.04,CLR,,0.39,WeatherDisplay:10.37,2013-03-10 14:42:00,
2013-03-10 09:45:00,36.6,33.7,29.76,South,175,0.0,0.0,89,0.05,RA,,0.40,WeatherDisplay:10.37,2013-03-10 14:45:00,
2013-03-10 09:46:00,36.6,33.7,29.76,South,175,0.0,0.0,89,0.05,RA,,0.40,WeatherDisplay:10.37,2013-03-10 14:46:00,
2013-03-10 09:47:00,36.6,33.7,29.75,South,175,0.0,0.0,89,0.05,RA,,0.40,WeatherDisplay:10.37,2013-03-10 14:47:00,
2013-03-10 09:50:00,36.7,33.8,29.75,South,175,0.0,0.0,89,0.04,RA,,0.40,WeatherDisplay:10.37,2013-03-10 14:50:00,
2013-03-10 09:51:00,36.8,33.9,29.75,South,175,0.0,0.0,89,0.04,RA,,0.40,WeatherDisplay:10.37,2013-03-10 14:51:00,
2013-03-10 09:52:00,36.8,33.9,29.75,South,175,0.0,0.0,89,0.04,RA,,0.40,WeatherDisplay:10.37,2013-03-10 14:52:00,
2013-03-10 09:56:00,37.0,34.1,29.75,South,175,0.0,0.0,89,0.04,CLR,,0.40,WeatherDisplay:10.37,2013-03-10 14:56:00,
2013-03-10 09:57:00,37.1,34.2,29.74,South,175,0.0,0.0,89,0.04,CLR,,0.40,WeatherDisplay:10.37,2013-03-10 14:57:00,
2013-03-10 10:01:00,37.5,34.6,29.74,South,175,0.0,0.0,89,0.03,CLR,,0.40,WeatherDisplay:10.37,2013-03-10 15:01:00,
2013-03-10 10:02:00,37.6,34.7,29.74,South,175,0.0,0.0,89,0.03,CLR,,0.40,WeatherDisplay:10.37,2013-03-10 15:02:00,
2013-03-10 10:06:00,38.1,35.1,29.74,South,175,0.0,0.0,89,0.02,CLR,,0.40,WeatherDisplay:10.37,2013-03-10 15:06:00,
2013-03-10 10:07:00,38.1,35.1,29.74,South,175,0.0,0.0,89,0.02,CLR,,0.40,WeatherDisplay:10.37,2013-03-10 15:07:00,
2013-03-10 10:11:00,38.4,35.4,29.74,South,175,0.0,0.0,89,0.02,CLR,,0.40,WeatherDisplay:10.37,2013-03-10 15:11:00,
2013-03-10 10:12:00,38.6,35.6,29.74,South,175,0.0,0.0,89,0.02,CLR,,0.40,WeatherDisplay:10.37,2013-03-10 15:12:00,
2013-03-10 10:13:00,38.6,35.6,29.74,South,175,0.0,0.0,89,0.02,CLR,,0.40,WeatherDisplay:10.37,2013-03-10 15:13:00,
2013-03-10 10:16:00,38.8,35.8,29.74,South,175,0.0,0.0,89,0.01,CLR,,0.40,WeatherDisplay:10.37,2013-03-10 15:16:00,
2013-03-10 10:17:00,38.8,35.8,29.74,South,175,0.0,0.0,89,0.01,CLR,,0.40,WeatherDisplay:10.37,2013-03-10 15:17:00,
2013-03-10 10:18:00,38.9,35.9,29.74,South,175,0.0,0.0,89,0.01,CLR,,0.40,WeatherDisplay:10.37,2013-03-10 15:18:00,
2013-03-10 10:21:00,39.0,36.0,29.75,South,175,0.0,0.0,89,0.01,CLR,,0.40,WeatherDisplay:10.37,2013-03-10 15:21:00,
2013-03-10 10:22:00,39.0,36.0,29.75,South,175,0.0,0.0,89,0.01,CLR,,0.40,WeatherDisplay:10.37,2013-03-10 15:22:00,
2013-03-10 10:23:00,39.0,36.0,29.75,South,175,0.0,0.0,89,0.01,CLR,,0.40,WeatherDisplay:10.37,2013-03-10 15:23:00,
2013-03-10 10:26:00,39.0,36.0,29.75,South,175,0.0,0.0,89,0.01,CLR,,0.40,WeatherDisplay:10.37,2013-03-10 15:26:00,
2013-03-10 10:27:00,39.0,36.0,29.75,South,175,0.0,0.0,89,0.01,CLR,,0.40,WeatherDisplay:10.37,2013-03-10 15:27:00,
2013-03-10 10:28:00,39.1,36.1,29.76,South,175,0.0,0.0,89,0.01,CLR,,0.40,WeatherDisplay:10.37,2013-03-10 15:28:00,
2013-03-10 10:32:00,39.1,36.1,29.76,South,175,0.0,0.0,89,0.01,CLR,,0.40,WeatherDisplay:10.37,2013-03-10 15:32:00,
2013-03-10 10:33:00,39.1,36.1,29.76,South,175,0.0,0.0,89,0.01,CLR,,0.40,WeatherDisplay:10.37,2013-03-10 15:33:00,
2013-03-10 10:37:00,39.0,35.7,29.76,West,270,0.0,0.0,88,0.01,CLR,,0.40,WeatherDisplay:10.37,2013-03-10 15:37:00,
2013-03-10 10:38:00,38.9,35.6,29.77,West,270,0.0,0.0,88,0.01,CLR,,0.40,WeatherDisplay:10.37,2013-03-10 15:38:00,
2013-03-10 10:42:00,38.6,35.4,29.77,NW,323,0.0,0.0,88,0.01,CLR,,0.40,WeatherDisplay:10.37,2013-03-10 15:42:00,
2013-03-10 10:43:00,38.5,35.3,29.77,NNE,28,0.5,3.5,88,0.01,CLR,,0.40,WeatherDisplay:10.37,2013-03-10 15:43:00,
2013-03-10 10:47:00,38.1,34.9,29.77,ENE,66,2.6,4.6,88,0.00,CLR,,0.40,WeatherDisplay:10.37,2013-03-10 15:47:00,
2013-03-10 10:48:00,38.1,34.9,29.77,North,8,1.8,3.5,88,0.00,CLR,,0.40,WeatherDisplay:10.37,2013-03-10 15:48:00,
2013-03-10 10:52:00,37.8,34.8,29.78,North,8,0.0,0.0,89,0.00,CLR,,0.40,WeatherDisplay:10.37,2013-03-10 15:52:00,
2013-03-10 10:53:00,37.8,34.8,29.78,North,8,0.0,0.0,89,0.00,CLR,,0.40,WeatherDisplay:10.37,2013-03-10 15:53:00,
2013-03-10 10:57:00,37.6,34.7,29.78,ENE,73,0.0,0.0,89,0.00,CLR,,0.40,WeatherDisplay:10.37,2013-03-10 15:57:00,
2013-03-10 10:58:00,37.7,34.8,29.78,ENE,73,0.0,0.0,89,0.00,CLR,,0.40,WeatherDisplay:10.37,2013-03-10 15:58:00,
2013-03-10 10:59:00,37.6,34.7,29.78,ENE,73,0.0,0.0,89,0.00,CLR,,0.40,WeatherDisplay:10.37,2013-03-10 15:59:00,
2013-03-10 11:03:00,37.5,34.6,29.78,East,90,0.0,0.0,89,0.00,CLR,,0.40,WeatherDisplay:10.37,2013-03-10 16:03:00,
2013-03-10 11:04:00,37.6,34.7,29.78,East,90,0.0,0.0,89,0.00,CLR,,0.40,WeatherDisplay:10.37,2013-03-10 16:04:00,
2013-03-10 11:08:00,37.5,34.6,29.78,NE,40,2.0,3.5,89,0.00,CLR,,0.40,WeatherDisplay:10.37,2013-03-10 16:08:00,
2013-03-10 11:09:00,37.5,34.6,29.77,North,0,1.7,2.3,89,0.00,CLR,,0.40,WeatherDisplay:10.37,2013-03-10 16:09:00,
2013-03-10 11:13:00,37.5,34.6,29.78,North,0,0.0,0.0,89,0.00,CLR,,0.40,WeatherDisplay:10.37,2013-03-10 16:13:00,
2013-03-10 11:14:00,37.5,34.6,29.78,North,0,0.0,0.0,89,0.00,CLR,,0.40,WeatherDisplay:10.37,2013-03-10 16:14:00,
2013-03-10 11:19:00,37.5,34.6,29.78,NE,35,2.9,4.6,89,0.00,CLR,,0.40,WeatherDisplay:10.37,2013-03-10 16:19:00,
2013-03-10 11:24:00,37.4,34.5,29.78,NNE,21,0.0,0.0,89,0.00,CLR,,0.40,WeatherDisplay:10.37,2013-03-10 16:24:00,
2013-03-10 11:25:00,37.4,34.5,29.78,NNE,21,0.4,3.3,89,0.00,CLR,,0.40,WeatherDisplay:10.37,2013-03-10 16:25:00,
2013-03-10 11:29:00,37.4,34.5,29.78,NNE,20,1.0,2.3,89,0.00,CLR,,0.40,WeatherDisplay:10.37,2013-03-10 16:29:00,
2013-03-10 11:30:00,37.4,34.5,29.78,NNE,24,0.7,2.3,89,0.00,CLR,,0.40,WeatherDisplay:10.37,2013-03-10 16:30:00,
2013-03-10 11:34:00,37.3,34.4,29.78,ENE,59,1.0,2.3,89,0.00,CLR,,0.40,WeatherDisplay:10.37,2013-03-10 16:34:00,
2013-03-10 11:35:00,37.4,34.5,29.78,ENE,59,0.0,1.1,89,0.00,CLR,,0.40,WeatherDisplay:10.37,2013-03-10 16:35:00,
2013-03-10 11:39:00,37.3,34.4,29.78,ESE,120,0.1,2.9,89,0.00,CLR,,0.40,WeatherDisplay:10.37,2013-03-10 16:39:00,
2013-03-10 11:40:00,37.4,34.5,29.78,East,83,1.5,3.5,89,0.00,CLR,,0.40,WeatherDisplay:10.37,2013-03-10 16:40:00,
2013-03-10 11:44:00,37.5,34.6,29.78,NE,54,0.0,1.1,89,0.00,CLR,,0.40,WeatherDisplay:10.37,2013-03-10 16:44:00,
2013-03-10 11:45:00,37.5,34.6,29.77,NE,51,1.3,3.0,89,0.00,CLR,,0.40,WeatherDisplay:10.37,2013-03-10 16:45:00,
2013-03-10 11:49:00,37.5,34.6,29.77,NE,45,0.0,0.0,89,0.00,CLR,,0.40,WeatherDisplay:10.37,2013-03-10 16:49:00,
2013-03-10 11:50:00,37.5,34.6,29.77,NE,45,0.0,0.0,89,0.00,CLR,,0.40,WeatherDisplay:10.37,2013-03-10 16:50:00,
2013-03-10 11:51:00,37.5,34.6,29.77,NE,45,0.0,0.0,89,0.00,CLR,,0.40,WeatherDisplay:10.37,2013-03-10 16:51:00,
2013-03-10 11:54:00,37.6,34.7,29.77,East,96,1.4,6.9,89,0.00,CLR,,0.40,WeatherDisplay:10.37,2013-03-10 16:54:00,
2013-03-10 11:55:00,37.6,34.7,29.77,East,100,1.7,3.5,89,0.00,CLR,,0.40,WeatherDisplay:10.37,2013-03-10 16:55:00,
2013-03-10 11:56:00,37.7,34.8,29.77,SE,126,1.6,3.5,89,0.00,CLR,,0.40,WeatherDisplay:10.37,2013-03-10 16:56:00,
2013-03-10 11:59:00,37.8,34.8,29.77,SSE,148,0.0,0.0,89,0.00,CLR,,0.40,WeatherDisplay:10.37,2013-03-10 16:59:00,
2013-03-10 12:00:00,37.7,34.8,29.77,SSE,148,0.0,0.0,89,0.00,CLR,,0.40,WeatherDisplay:10.37,2013-03-10 17:00:00,
2013-03-10 12:01:00,37.8,34.8,29.77,SSE,148,0.0,0.0,89,0.00,CLR,,0.40,WeatherDisplay:10.37,2013-03-10 17:01:00,
2013-03-10 12:05:00,37.8,34.8,29.76,SSE,148,0.0,0.0,89,0.00,CLR,,0.40,WeatherDisplay:10.37,2013-03-10 17:05:00,
2013-03-10 12:06:00,37.8,34.8,29.76,SSE,148,0.0,0.0,89,0.00,CLR,,0.40,WeatherDisplay:10.37,2013-03-10 17:06:00,
2013-03-10 12:10:00,37.8,34.8,29.75,North,354,3.9,5.8,89,0.00,CLR,,0.40,WeatherDisplay:10.37,2013-03-10 17:10:00,
2013-03-10 12:11:00,37.8,34.8,29.75,NNE,23,3.5,5.8,89,0.00,CLR,,0.40,WeatherDisplay:10.37,2013-03-10 17:11:00,
2013-03-10 12:15:00,37.7,34.8,29.74,North,6,4.8,7.5,89,0.00,CLR,,0.40,WeatherDisplay:10.37,2013-03-10 17:15:00,
2013-03-10 12:16:00,37.8,34.8,29.74,NE,45,5.8,8.1,89,0.00,CLR,,0.40,WeatherDisplay:10.37,2013-03-10 17:16:00,
2013-03-10 12:17:00,37.8,34.8,29.74,NNE,13,5.9,8.1,89,0.00,CLR,,0.40,WeatherDisplay:10.37,2013-03-10 17:17:00,
2013-03-10 12:20:00,37.6,34.7,29.75,NNE,14,2.9,6.9,89,0.00,CLR,,0.40,WeatherDisplay:10.37,2013-03-10 17:20:00,
2013-03-10 12:21:00,37.6,34.7,29.75,ENE,59,2.7,4.6,89,0.00,CLR,,0.40,WeatherDisplay:10.37,2013-03-10 17:21:00,
2013-03-10 12:22:00,37.5,34.6,29.75,ENE,66,2.3,5.8,89,0.00,CLR,,0.40,WeatherDisplay:10.37,2013-03-10 17:22:00,
2013-03-10 12:26:00,37.5,34.6,29.75,ENE,61,4.1,8.1,89,0.00,CLR,,0.40,WeatherDisplay:10.37,2013-03-10 17:26:00,
2013-03-10 12:27:00,37.5,34.6,29.75,North,10,4.0,5.8,89,0.00,CLR,,0.40,WeatherDisplay:10.37,2013-03-10 17:27:00,
2013-03-10 12:31:00,37.5,34.6,29.75,North,1,1.4,3.5,89,0.00,CLR,,0.40,WeatherDisplay:10.37,2013-03-10 17:31:00,
2013-03-10 12:32:00,37.5,34.6,29.75,North,8,1.9,2.5,89,0.00,CLR,,0.40,WeatherDisplay:10.37,2013-03-10 17:32:00,
2013-03-10 12:36:00,37.5,34.6,29.75,North,10,0.8,4.2,89,0.00,CLR,,0.40,WeatherDisplay:10.37,2013-03-10 17:36:00,
2013-03-10 12:38:00,37.4,34.5,29.76,North,4,1.5,2.3,89,0.00,CLR,,0.40,WeatherDisplay:10.37,2013-03-10 17:38:00,
2013-03-10 12:41:00,37.5,34.6,29.76,North,0,4.0,4.6,89,0.00,CLR,,0.40,WeatherDisplay:10.37,2013-03-10 17:41:00,
2013-03-10 12:42:00,37.5,34.6,29.76,North,1,3.6,4.6,89,0.00,CLR,,0.40,WeatherDisplay:10.37,2013-03-10 17:42:00,
2013-03-10 12:43:00,37.5,34.6,29.76,North,353,3.6,5.8,89,0.00,CLR,,0.40,WeatherDisplay:10.37,2013-03-10 17:43:00,
2013-03-10 12:46:00,37.4,34.5,29.77,North,6,3.4,6.9,89,0.00,CLR,,0.40,WeatherDisplay:10.37,2013-03-10 17:46:00,
2013-03-10 12:47:00,37.4,34.5,29.77,North,360,3.7,5.8,89,0.00,CLR,,0.40,WeatherDisplay:10.37,2013-03-10 17:47:00,
2013-03-10 12:48:00,37.4,34.5,29.77,NNE,21,3.5,5.8,89,0.00,CLR,,0.40,WeatherDisplay:10.37,2013-03-10 17:48:00,
2013-03-10 12:51:00,37.3,34.4,29.77,North,3,4.7,6.9,89,0.00,CLR,,0.40,WeatherDisplay:10.37,2013-03-10 17:51:00,
2013-03-10 12:52:00,37.3,34.4,29.77,North,354,4.5,5.8,89,0.00,CLR,,0.40,WeatherDisplay:10.37,2013-03-10 17:52:00,
2013-03-10 12:53:00,37.2,34.0,29.77,NNE,30,3.2,5.8,88,0.00,CLR,,0.40,WeatherDisplay:10.37,2013-03-10 17:53:00,
2013-03-10 12:56:00,37.1,33.9,29.78,NE,51,2.5,6.9,88,0.00,CLR,,0.40,WeatherDisplay:10.37,2013-03-10 17:56:00,
2013-03-10 12:57:00,37.1,34.2,29.78,NW,325,1.9,3.5,89,0.00,CLR,,0.40,WeatherDisplay:10.37,2013-03-10 17:57:00,
2013-03-10 12:58:00,37.1,34.2,29.78,NW,325,0.6,3.5,89,0.00,CLR,,0.40,WeatherDisplay:10.37,2013-03-10 17:58:00,
2013-03-10 13:01:00,36.9,34.0,29.79,WNW,292,3.7,4.4,89,0.00,CLR,,0.40,WeatherDisplay:10.37,2013-03-10 18:01:00,
2013-03-10 13:02:00,37.0,34.1,29.79,NNE,24,3.8,5.8,89,0.00,CLR,,0.40,WeatherDisplay:10.37,2013-03-10 18:02:00,
2013-03-10 13:03:00,36.9,34.0,29.79,NNW,343,4.2,5.8,89,0.00,CLR,,0.40,WeatherDisplay:10.37,2013-03-10 18:03:00,
2013-03-10 13:05:00,36.9,34.0,29.79,North,1,4.1,5.8,89,0.00,CLR,,0.40,WeatherDisplay:10.37,2013-03-10 18:05:00,
2013-03-10 13:06:00,36.8,33.9,29.79,NNE,24,4.2,5.8,89,0.00,CLR,,0.40,WeatherDisplay:10.37,2013-03-10 18:06:00,
2013-03-10 13:08:00,36.8,33.9,29.79,NNE,32,3.0,4.6,89,0.00,CLR,,0.40,WeatherDisplay:10.37,2013-03-10 18:08:00,
2013-03-10 13:10:00,36.6,33.7,29.79,NE,51,3.3,5.8,89,0.00,CLR,,0.40,WeatherDisplay:10.37,2013-03-10 18:10:00,
2013-03-10 13:12:00,36.6,33.7,29.78,NNE,28,4.5,6.3,89,0.00,CLR,,0.40,WeatherDisplay:10.37,2013-03-10 18:12:00,
2013-03-10 13:13:00,36.6,33.7,29.78,NE,44,4.6,6.9,89,0.00,CLR,,0.40,WeatherDisplay:10.37,2013-03-10 18:13:00,
2013-03-10 13:15:00,36.5,33.6,29.78,NE,42,3.7,6.9,89,0.00,CLR,,0.40,WeatherDisplay:10.37,2013-03-10 18:15:00,
2013-03-10 13:17:00,36.4,33.5,29.78,NE,42,4.0,5.0,89,0.00,CLR,,0.40,WeatherDisplay:10.37,2013-03-10 18:17:00,
2013-03-10 13:18:00,36.4,33.5,29.78,NNE,30,4.1,6.9,89,0.00,CLR,,0.40,WeatherDisplay:10.37,2013-03-10 18:18:00,
2013-03-10 13:21:00,36.3,33.4,29.78,North,360,3.0,4.6,89,0.00,CLR,,0.40,WeatherDisplay:10.37,2013-03-10 18:21:00,
2013-03-10 13:22:00,36.3,33.4,29.78,ENE,73,4.9,8.1,89,0.00,CLR,,0.40,WeatherDisplay:10.37,2013-03-10 18:22:00,
2013-03-10 13:23:00,36.2,33.3,29.78,North,8,4.1,5.8,89,0.00,CLR,,0.40,WeatherDisplay:10.37,2013-03-10 18:23:00,
2013-03-10 13:24:00,36.2,33.3,29.78,NE,42,4.4,5.8,89,0.00,CLR,,0.40,WeatherDisplay:10.37,2013-03-10 18:24:00,
2013-03-10 13:26:00,36.2,33.3,29.78,ENE,64,4.2,6.9,89,0.00,CLR,,0.40,WeatherDisplay:10.37,2013-03-10 18:26:00,
2013-03-10 13:27:00,36.1,33.2,29.78,North,6,5.4,6.9,89,0.00,CLR,,0.40,WeatherDisplay:10.37,2013-03-10 18:27:00,
2013-03-10 13:28:00,36.1,33.2,29.78,NNE,21,4.9,6.9,89,0.00,CLR,,0.40,WeatherDisplay:10.37,2013-03-10 18:28:00,
2013-03-10 13:29:00,36.0,33.1,29.78,NE,44,4.5,7.0,89,0.00,CLR,,0.40,WeatherDisplay:10.37,2013-03-10 18:29:00,
2013-03-10 13:31:00,36.0,33.1,29.77,NNE,23,5.8,9.2,89,0.00,CLR,,0.40,WeatherDisplay:10.37,2013-03-10 18:31:00,
2013-03-10 13:32:00,35.9,33.0,29.77,NE,37,5.6,9.2,89,0.00,CLR,,0.40,WeatherDisplay:10.37,2013-03-10 18:32:00,
2013-03-10 13:33:00,35.9,33.0,29.77,North,7,4.4,9.2,89,0.00,CLR,,0.40,WeatherDisplay:10.37,2013-03-10 18:33:00,
2013-03-10 13:34:00,35.9,33.0,29.77,ENE,71,5.5,8.1,89,0.00,CLR,,0.40,WeatherDisplay:10.37,2013-03-10 18:34:00,
2013-03-10 13:36:00,35.9,33.0,29.77,NNE,14,6.6,9.3,89,0.01,RA,,0.41,WeatherDisplay:10.37,2013-03-10 18:36:00,
2013-03-10 13:37:00,35.8,32.9,29.77,North,1,5.9,9.2,89,0.01,RA,,0.41,WeatherDisplay:10.37,2013-03-10 18:37:00,
2013-03-10 13:38:00,35.8,32.9,29.77,NNE,18,5.9,8.1,89,0.01,RA,,0.41,WeatherDisplay:10.37,2013-03-10 18:38:00,
2013-03-10 13:39:00,35.8,32.9,29.77,NNE,31,5.9,9.2,89,0.01,RA,,0.42,WeatherDisplay:10.37,2013-03-10 18:39:00,
2013-03-10 13:41:00,35.7,32.8,29.77,NNE,28,6.1,10.4,89,0.02,RA,,0.42,WeatherDisplay:10.37,2013-03-10 18:41:00,
2013-03-10 13:42:00,35.7,32.8,29.77,NE,51,3.8,6.9,89,0.02,RA,,0.42,WeatherDisplay:10.37,2013-03-10 18:42:00,
2013-03-10 13:43:00,35.7,32.8,29.77,North,3,5.3,8.6,89,0.02,RA,,0.42,WeatherDisplay:10.37,2013-03-10 18:43:00,
2013-03-10 13:44:00,35.8,32.9,29.77,NE,37,5.6,8.1,89,0.02,RA,,0.42,WeatherDisplay:10.37,2013-03-10 18:44:00,
2013-03-10 13:46:00,35.8,32.9,29.77,NNE,28,5.1,8.1,89,0.03,RA,,0.43,WeatherDisplay:10.37,2013-03-10 18:46:00,
2013-03-10 13:48:00,35.8,32.9,29.77,NE,42,6.0,9.2,89,0.03,RA,,0.43,WeatherDisplay:10.37,2013-03-10 18:48:00,
2013-03-10 13:49:00,35.7,32.8,29.77,NE,44,5.8,10.1,89,0.03,RA,,0.43,WeatherDisplay:10.37,2013-03-10 18:49:00,
2013-03-10 13:51:00,35.8,32.9,29.76,NE,44,6.7,8.1,89,0.03,RA,,0.43,WeatherDisplay:10.37,2013-03-10 18:51:00,
2013-03-10 13:53:00,35.8,32.9,29.76,SE,134,4.4,6.9,89,0.03,RA,,0.43,WeatherDisplay:10.37,2013-03-10 18:53:00,
2013-03-10 13:54:00,35.7,32.8,29.76,NE,38,3.8,6.7,89,0.03,RA,,0.43,WeatherDisplay:10.37,2013-03-10 18:54:00,
2013-03-10 13:56:00,35.8,32.9,29.76,NE,35,5.8,9.2,89,0.04,RA,,0.44,WeatherDisplay:10.37,2013-03-10 18:56:00,
2013-03-10 13:58:00,35.8,32.9,29.76,NE,44,4.4,6.9,89,0.04,RA,,0.44,WeatherDisplay:10.37,2013-03-10 18:58:00,
2013-03-10 13:59:00,35.8,32.9,29.76,NNE,24,5.9,8.1,89,0.04,RA,,0.44,WeatherDisplay:10.37,2013-03-10 18:59:00,
2013-03-10 14:01:00,35.8,32.9,29.76,NNE,28,6.8,9.4,89,0.04,RA,,0.44,WeatherDisplay:10.37,2013-03-10 19:01:00,
2013-03-10 14:03:00,35.7,32.8,29.75,NNE,31,4.3,6.9,89,0.04,RA,,0.44,WeatherDisplay:10.37,2013-03-10 19:03:00,
2013-03-10 14:04:00,35.8,32.9,29.75,NNE,30,6.0,8.1,89,0.04,RA,,0.44,WeatherDisplay:10.37,2013-03-10 19:04:00,
2013-03-10 14:07:00,35.7,32.8,29.75,NNE,30,6.6,10.4,89,0.04,,,0.44,WeatherDisplay:10.37,2013-03-10 19:07:00,
2013-03-10 14:08:00,35.8,32.9,29.75,NNE,28,5.7,12.7,89,0.04,CLR,,0.44,WeatherDisplay:10.37,2013-03-10 19:08:00,
2013-03-10 14:09:00,35.8,32.9,29.75,NE,45,6.3,9.3,89,0.04,CLR,,0.44,WeatherDisplay:10.37,2013-03-10 19:09:00,
2013-03-10 14:12:00,35.7,32.8,29.75,NNE,32,5.9,11.5,89,0.04,CLR,,0.44,WeatherDisplay:10.37,2013-03-10 19:12:00,
2013-03-10 14:13:00,35.7,32.8,29.75,NE,35,6.9,9.5,89,0.04,CLR,,0.44,WeatherDisplay:10.37,2013-03-10 19:13:00,
2013-03-10 14:14:00,35.8,32.9,29.75,NE,55,7.0,10.4,89,0.04,CLR,,0.44,WeatherDisplay:10.37,2013-03-10 19:14:00,
2013-03-10 14:15:00,35.7,32.8,29.75,NNE,30,4.5,10.6,89,0.04,CLR,,0.44,WeatherDisplay:10.37,2013-03-10 19:15:00,
2013-03-10 14:17:00,35.7,32.8,29.75,East,88,5.7,8.1,89,0.04,CLR,,0.44,WeatherDisplay:10.37,2013-03-10 19:17:00,
2013-03-10 14:19:00,35.6,32.7,29.74,ENE,66,6.4,9.2,89,0.04,CLR,,0.44,WeatherDisplay:10.37,2013-03-10 19:19:00,
2013-03-10 14:20:00,35.7,32.8,29.74,ENE,64,7.8,12.7,89,0.04,CLR,,0.44,WeatherDisplay:10.37,2013-03-10 19:20:00,
2013-03-10 14:22:00,35.6,32.7,29.74,NE,40,5.8,9.2,89,0.04,CLR,,0.44,WeatherDisplay:10.37,2013-03-10 19:22:00,
2013-03-10 14:24:00,35.7,32.8,29.74,NE,56,6.2,11.5,89,0.04,CLR,,0.44,WeatherDisplay:10.37,2013-03-10 19:24:00,
2013-03-10 14:25:00,35.7,32.8,29.74,NE,45,8.4,10.4,89,0.04,CLR,,0.44,WeatherDisplay:10.37,2013-03-10 19:25:00,
2013-03-10 14:27:00,35.6,32.7,29.73,ENE,59,9.1,13.8,89,0.04,CLR,,0.44,WeatherDisplay:10.37,2013-03-10 19:27:00,
2013-03-10 14:29:00,35.7,32.8,29.73,East,100,7.1,11.5,89,0.04,CLR,,0.44,WeatherDisplay:10.37,2013-03-10 19:29:00,
2013-03-10 14:30:00,35.6,32.7,29.73,NE,37,5.2,11.7,89,0.04,CLR,,0.44,WeatherDisplay:10.37,2013-03-10 19:30:00,
2013-03-10 14:32:00,35.5,32.6,29.73,NNE,28,9.0,12.4,89,0.04,CLR,,0.44,WeatherDisplay:10.37,2013-03-10 19:32:00,
2013-03-10 14:34:00,35.6,32.7,29.73,ENE,75,6.9,11.5,89,0.04,CLR,,0.44,WeatherDisplay:10.37,2013-03-10 19:34:00,
2013-03-10 14:36:00,35.6,32.7,29.73,NE,55,7.4,9.2,89,0.03,CLR,,0.44,WeatherDisplay:10.37,2013-03-10 19:36:00,
2013-03-10 14:37:00,35.5,32.6,29.73,ENE,66,5.3,12.7,89,0.03,CLR,,0.44,WeatherDisplay:10.37,2013-03-10 19:37:00,
2013-03-10 14:39:00,35.5,32.6,29.72,NE,44,6.1,11.5,89,0.03,CLR,,0.44,WeatherDisplay:10.37,2013-03-10 19:39:00,
2013-03-10 14:41:00,35.5,32.6,29.72,NE,44,5.0,9.2,89,0.02,CLR,,0.45,WeatherDisplay:10.37,2013-03-10 19:41:00,
2013-03-10 14:42:00,35.4,32.5,29.72,NE,48,4.0,6.9,89,0.03,RA,,0.45,WeatherDisplay:10.37,2013-03-10 19:42:00,
2013-03-10 14:44:00,35.5,32.6,29.72,North,3,4.6,8.1,89,0.03,RA,,0.45,WeatherDisplay:10.37,2013-03-10 19:44:00,
2013-03-10 14:46:00,35.5,32.6,29.72,NNE,32,6.4,9.2,89,0.02,RA,,0.45,WeatherDisplay:10.37,2013-03-10 19:46:00,
2013-03-10 14:47:00,35.5,32.6,29.72,NNE,18,5.9,9.2,89,0.02,RA,,0.45,WeatherDisplay:10.37,2013-03-10 19:47:00,
2013-03-10 14:49:00,35.5,32.6,29.72,East,96,7.0,11.5,89,0.02,RA,,0.45,WeatherDisplay:10.37,2013-03-10 19:49:00,
2013-03-10 14:50:00,35.5,32.6,29.72,NE,37,6.7,11.5,89,0.02,RA,,0.45,WeatherDisplay:10.37,2013-03-10 19:50:00,
2013-03-10 14:51:00,35.5,32.6,29.72,NE,56,6.8,10.9,89,0.03,RA,,0.46,WeatherDisplay:10.37,2013-03-10 19:51:00,
2013-03-10 14:52:00,35.5,32.6,29.72,ENE,69,7.1,11.5,89,0.03,RA,,0.46,WeatherDisplay:10.37,2013-03-10 19:52:00,
2013-03-10 14:55:00,35.4,32.5,29.72,NE,35,7.5,11.5,89,0.03,RA,,0.46,WeatherDisplay:10.37,2013-03-10 19:55:00,
2013-03-10 14:57:00,35.4,32.5,29.72,ENE,71,5.2,9.2,89,0.02,RA,,0.46,WeatherDisplay:10.37,2013-03-10 19:57:00,
2013-03-10 15:00:00,35.3,32.4,29.72,NNE,16,7.0,12.7,89,0.03,RA,,0.47,WeatherDisplay:10.37,2013-03-10 20:00:00,
2013-03-10 15:02:00,35.3,32.4,29.72,NNE,21,6.2,9.8,89,0.03,RA,,0.47,WeatherDisplay:10.37,2013-03-10 20:02:00,
2013-03-10 15:05:00,35.3,32.4,29.72,NNE,23,5.7,7.2,89,0.03,RA,,0.47,WeatherDisplay:10.37,2013-03-10 20:05:00,
2013-03-10 15:06:00,35.3,32.4,29.72,ESE,121,4.8,9.2,89,0.03,RA,,0.48,WeatherDisplay:10.37,2013-03-10 20:06:00,
2013-03-10 15:07:00,35.3,32.4,29.72,NNE,14,5.8,9.2,89,0.04,RA,,0.48,WeatherDisplay:10.37,2013-03-10 20:07:00,
2013-03-10 15:10:00,35.2,32.3,29.72,NNE,14,6.0,10.4,89,0.04,RA,,0.48,WeatherDisplay:10.37,2013-03-10 20:10:00,
2013-03-10 15:12:00,35.3,32.4,29.72,ENE,61,5.6,9.2,89,0.04,RA,,0.48,WeatherDisplay:10.37,2013-03-10 20:12:00,
2013-03-10 15:13:00,35.2,32.3,29.72,NNE,24,6.9,12.7,89,0.04,RA,,0.48,WeatherDisplay:10.37,2013-03-10 20:13:00,
2013-03-10 15:15:00,35.2,32.3,29.71,NNE,28,8.7,12.9,89,0.04,RA,,0.48,WeatherDisplay:10.37,2013-03-10 20:15:00,
2013-03-10 15:18:00,35.0,32.1,29.71,ENE,66,7.5,10.4,89,0.05,RA,,0.49,WeatherDisplay:10.37,2013-03-10 20:18:00,
2013-03-10 15:20:00,35.1,32.2,29.70,NE,56,7.4,10.4,89,0.05,RA,,0.49,WeatherDisplay:10.37,2013-03-10 20:20:00,
2013-03-10 15:23:00,35.0,32.1,29.70,ENE,62,7.2,9.2,89,0.05,RA,,0.49,WeatherDisplay:10.37,2013-03-10 20:23:00,
2013-03-10 15:24:00,34.9,32.0,29.70,ENE,75,7.5,11.5,89,0.05,RA,,0.49,WeatherDisplay:10.37,2013-03-10 20:24:00,
2013-03-10 15:25:00,34.9,32.0,29.70,NNE,16,6.2,12.9,89,0.05,RA,,0.49,WeatherDisplay:10.37,2013-03-10 20:25:00,
2013-03-10 15:28:00,35.0,32.1,29.70,NE,38,7.7,10.4,89,0.06,RA,,0.50,WeatherDisplay:10.37,2013-03-10 20:28:00,
2013-03-10 15:29:00,35.0,32.1,29.70,NNE,18,6.0,11.5,89,0.06,RA,,0.50,WeatherDisplay:10.37,2013-03-10 20:29:00,
2013-03-10 15:30:00,35.0,32.1,29.70,NE,45,7.3,13.8,89,0.06,RA,,0.50,WeatherDisplay:10.37,2013-03-10 20:30:00,
2013-03-10 15:33:00,35.0,32.1,29.70,NE,55,6.1,8.1,89,0.06,RA,,0.50,WeatherDisplay:10.37,2013-03-10 20:33:00,
2013-03-10 15:35:00,35.1,32.2,29.70,NE,34,6.3,11.5,89,0.06,RA,,0.50,WeatherDisplay:10.37,2013-03-10 20:35:00,
2013-03-10 15:38:00,34.9,32.0,29.69,NE,44,7.0,12.7,89,0.07,RA,,0.51,WeatherDisplay:10.37,2013-03-10 20:38:00,
2013-03-10 15:39:00,35.0,32.1,29.69,NE,55,8.4,11.5,89,0.07,RA,,0.51,WeatherDisplay:10.37,2013-03-10 20:39:00,
2013-03-10 15:40:00,34.9,32.0,29.69,NNE,18,6.1,9.2,89,0.07,RA,,0.51,WeatherDisplay:10.37,2013-03-10 20:40:00,
2013-03-10 15:44:00,34.9,32.0,29.70,ENE,76,3.6,5.8,89,0.07,RA,,0.52,WeatherDisplay:10.37,2013-03-10 20:44:00,
2013-03-10 15:46:00,34.9,32.0,29.70,ENE,65,4.8,9.2,89,0.07,RA,,0.52,WeatherDisplay:10.37,2013-03-10 20:46:00,
2013-03-10 15:49:00,35.0,32.1,29.70,NE,51,4.1,6.9,89,0.08,RA,,0.53,WeatherDisplay:10.37,2013-03-10 20:49:00,
2013-03-10 15:52:00,34.9,32.0,29.71,NE,41,4.0,9.2,89,0.07,RA,,0.53,WeatherDisplay:10.37,2013-03-10 20:52:00,
2013-03-10 15:54:00,34.9,32.0,29.71,ENE,66,3.0,6.9,89,0.08,RA,,0.54,WeatherDisplay:10.37,2013-03-10 20:54:00,
2013-03-10 15:57:00,34.8,31.9,29.71,NE,41,5.5,8.1,89,0.08,RA,,0.54,WeatherDisplay:10.37,2013-03-10 20:57:00,
2013-03-10 15:59:00,34.8,31.9,29.71,North,356,3.9,9.2,89,0.08,RA,,0.55,WeatherDisplay:10.37,2013-03-10 20:59:00,
2013-03-10 16:02:00,34.9,32.0,29.71,NE,35,2.5,6.9,89,0.08,RA,,0.55,WeatherDisplay:10.37,2013-03-10 21:02:00,
2013-03-10 16:03:00,34.8,31.9,29.71,NNE,24,3.4,6.2,89,0.09,RA,,0.56,WeatherDisplay:10.37,2013-03-10 21:03:00,
2013-03-10 16:04:00,34.8,31.9,29.71,NNE,13,4.6,6.9,89,0.09,RA,,0.56,WeatherDisplay:10.37,2013-03-10 21:04:00,
2013-03-10 16:07:00,34.8,31.9,29.71,NE,40,5.9,9.2,89,0.08,RA,,0.57,WeatherDisplay:10.37,2013-03-10 21:07:00,
2013-03-10 16:08:00,34.8,31.9,29.71,NE,52,3.9,9.2,89,0.09,RA,,0.57,WeatherDisplay:10.37,2013-03-10 21:08:00,
2013-03-10 16:09:00,34.8,31.9,29.71,North,8,3.4,6.9,89,0.09,RA,,0.57,WeatherDisplay:10.37,2013-03-10 21:09:00,
2013-03-10 16:10:00,34.8,31.9,29.71,NNE,25,3.4,6.9,89,0.09,RA,,0.57,WeatherDisplay:10.37,2013-03-10 21:10:00,
2013-03-10 16:12:00,34.7,31.8,29.71,ENE,73,3.7,4.6,89,0.10,RA,,0.58,WeatherDisplay:10.37,2013-03-10 21:12:00,
2013-03-10 16:13:00,34.7,31.8,29.71,NE,52,3.8,8.4,89,0.10,RA,,0.58,WeatherDisplay:10.37,2013-03-10 21:13:00,
2013-03-10 16:15:00,34.7,31.8,29.71,NE,47,4.5,8.1,89,0.11,RA,,0.59,WeatherDisplay:10.37,2013-03-10 21:15:00,
2013-03-10 16:17:00,34.6,31.7,29.72,NNE,27,4.5,6.7,89,0.10,RA,,0.59,WeatherDisplay:10.37,2013-03-10 21:17:00,
2013-03-10 16:18:00,34.7,31.8,29.72,SE,128,2.9,6.9,89,0.10,RA,,0.60,WeatherDisplay:10.37,2013-03-10 21:18:00,
2013-03-10 16:20:00,34.7,31.8,29.72,ESE,106,1.0,2.3,89,0.11,RA,,0.60,WeatherDisplay:10.37,2013-03-10 21:20:00,
2013-03-10 16:22:00,34.6,31.7,29.72,ENE,72,4.7,8.3,89,0.11,RA,,0.61,WeatherDisplay:10.37,2013-03-10 21:22:00,
2013-03-10 16:23:00,34.6,31.7,29.72,NNE,23,5.5,8.1,89,0.12,RA,,0.61,WeatherDisplay:10.37,2013-03-10 21:23:00,
2013-03-10 16:25:00,34.6,31.7,29.72,NE,52,5.0,6.9,89,0.12,RA,,0.61,WeatherDisplay:10.37,2013-03-10 21:25:00,
2013-03-10 16:27:00,34.6,31.7,29.72,North,4,5.0,8.7,89,0.12,RA,,0.62,WeatherDisplay:10.37,2013-03-10 21:27:00,
2013-03-10 16:28:00,34.6,31.7,29.72,ENE,73,4.8,9.2,89,0.12,RA,,0.62,WeatherDisplay:10.37,2013-03-10 21:28:00,
2013-03-10 16:30:00,34.5,31.6,29.72,NE,45,4.6,8.1,89,0.12,RA,,0.62,WeatherDisplay:10.37,2013-03-10 21:30:00,
2013-03-10 16:33:00,34.5,31.6,29.72,NNE,20,6.0,8.1,89,0.13,RA,,0.63,WeatherDisplay:10.37,2013-03-10 21:33:00,
2013-03-10 16:34:00,34.5,31.6,29.72,East,92,5.0,9.2,89,0.13,RA,,0.63,WeatherDisplay:10.37,2013-03-10 21:34:00,
2013-03-10 16:35:00,34.4,31.5,29.72,NNE,28,6.3,8.1,89,0.13,RA,,0.63,WeatherDisplay:10.37,2013-03-10 21:35:00,
2013-03-10 16:38:00,34.4,31.5,29.72,NE,56,5.6,8.1,89,0.12,RA,,0.63,WeatherDisplay:10.37,2013-03-10 21:38:00,
2013-03-10 16:39:00,34.5,31.6,29.72,NNE,13,4.4,8.1,89,0.12,RA,,0.63,WeatherDisplay:10.37,2013-03-10 21:39:00,
2013-03-10 16:40:00,34.4,31.5,29.72,NE,52,7.2,10.4,89,0.12,RA,,0.63,WeatherDisplay:10.37,2013-03-10 21:40:00,
2013-03-10 16:43:00,34.3,31.4,29.71,NNE,23,5.4,9.2,89,0.11,,,0.63,WeatherDisplay:10.37,2013-03-10 21:43:00,
2013-03-10 16:44:00,34.3,31.4,29.71,NNE,32,5.4,11.7,89,0.11,CLR,,0.63,WeatherDisplay:10.37,2013-03-10 21:44:00,
2013-03-10 16:45:00,34.2,31.3,29.71,NE,34,5.4,11.5,89,0.11,CLR,,0.63,WeatherDisplay:10.37,2013-03-10 21:45:00,
2013-03-10 16:48:00,34.3,31.4,29.72,NE,55,7.4,9.2,89,0.11,CLR,,0.63,WeatherDisplay:10.37,2013-03-10 21:48:00,
2013-03-10 16:49:00,34.3,31.4,29.72,ENE,62,6.1,11.5,89,0.10,CLR,,0.63,WeatherDisplay:10.37,2013-03-10 21:49:00,
2013-03-10 16:50:00,34.2,31.3,29.72,NE,54,5.8,9.2,89,0.10,CLR,,0.63,WeatherDisplay:10.37,2013-03-10 21:50:00,
2013-03-10 16:51:00,34.3,31.4,29.72,NNE,27,6.3,13.8,89,0.10,CLR,,0.63,WeatherDisplay:10.37,2013-03-10 21:51:00,
2013-03-10 16:53:00,34.2,31.3,29.72,North,1,6.6,12.7,89,0.10,CLR,,0.63,WeatherDisplay:10.37,2013-03-10 21:53:00,
2013-03-10 16:54:00,34.2,31.3,29.72,NE,54,4.0,10.4,89,0.09,CLR,,0.63,WeatherDisplay:10.37,2013-03-10 21:54:00,
2013-03-10 16:55:00,34.2,31.3,29.72,NNE,16,6.4,11.5,89,0.09,CLR,,0.63,WeatherDisplay:10.37,2013-03-10 21:55:00,
2013-03-10 16:56:00,34.1,31.2,29.72,NNE,27,4.8,7.4,89,0.09,CLR,,0.63,WeatherDisplay:10.37,2013-03-10 21:56:00,
2013-03-10 16:58:00,34.2,31.3,29.72,NE,35,6.4,9.2,89,0.08,CLR,,0.63,WeatherDisplay:10.37,2013-03-10 21:58:00,
2013-03-10 16:59:00,34.1,31.2,29.72,ENE,58,4.8,9.2,89,0.08,CLR,,0.63,WeatherDisplay:10.37,2013-03-10 21:59:00,
2013-03-10 17:00:00,34.1,31.2,29.71,NE,47,6.2,11.5,89,0.08,CLR,,0.63,WeatherDisplay:10.37,2013-03-10 22:00:00,
2013-03-10 17:02:00,34.1,31.2,29.72,East,93,6.2,10.4,89,0.08,CLR,,0.63,WeatherDisplay:10.37,2013-03-10 22:02:00,
2013-03-10 17:03:00,34.1,31.2,29.71,East,89,6.5,11.5,89,0.07,CLR,,0.63,WeatherDisplay:10.37,2013-03-10 22:03:00,
2013-03-10 17:04:00,34.1,31.2,29.71,NNE,21,5.2,10.4,89,0.07,CLR,,0.63,WeatherDisplay:10.37,2013-03-10 22:04:00,
2013-03-10 17:05:00,34.0,31.1,29.71,WNW,291,6.8,11.5,89,0.07,CLR,,0.63,WeatherDisplay:10.37,2013-03-10 22:05:00,
2013-03-10 17:07:00,34.0,31.1,29.71,NE,56,4.3,5.8,89,0.07,CLR,,0.63,WeatherDisplay:10.37,2013-03-10 22:07:00,
2013-03-10 17:08:00,34.1,31.2,29.71,North,7,7.9,10.4,89,0.06,CLR,,0.63,WeatherDisplay:10.37,2013-03-10 22:08:00,
2013-03-10 17:10:00,34.0,31.1,29.71,NE,51,7.9,12.7,89,0.06,CLR,,0.63,WeatherDisplay:10.37,2013-03-10 22:10:00,
2013-03-10 17:12:00,34.0,31.1,29.70,NNE,20,6.2,11.5,89,0.05,CLR,,0.63,WeatherDisplay:10.37,2013-03-10 22:12:00,
2013-03-10 17:14:00,33.9,31.0,29.70,NE,51,4.8,8.0,89,0.05,CLR,,0.63,WeatherDisplay:10.37,2013-03-10 22:14:00,
2013-03-10 17:15:00,33.9,31.0,29.69,NE,37,7.3,9.2,89,0.04,CLR,,0.63,WeatherDisplay:10.37,2013-03-10 22:15:00,
2013-03-10 17:17:00,33.9,31.0,29.69,NE,41,5.8,9.2,89,0.04,CLR,,0.63,WeatherDisplay:10.37,2013-03-10 22:17:00,
2013-03-10 17:19:00,33.9,31.0,29.69,NE,55,4.6,8.1,89,0.03,CLR,,0.63,WeatherDisplay:10.37,2013-03-10 22:19:00,
2013-03-10 17:20:00,33.9,31.0,29.69,ENE,64,6.8,11.5,89,0.03,CLR,,0.63,WeatherDisplay:10.37,2013-03-10 22:20:00,
2013-03-10 17:22:00,33.8,30.9,29.69,NE,41,7.7,15.0,89,0.03,CLR,,0.63,WeatherDisplay:10.37,2013-03-10 22:22:00,
2013-03-10 17:24:00,33.9,31.0,29.69,NNE,13,7.5,12.0,89,0.02,CLR,,0.63,WeatherDisplay:10.37,2013-03-10 22:24:00,
2013-03-10 17:25:00,33.8,30.9,29.69,North,6,7.8,11.5,89,0.02,CLR,,0.63,WeatherDisplay:10.37,2013-03-10 22:25:00,
2013-03-10 17:27:00,33.9,31.0,29.68,NE,52,6.6,10.4,89,0.01,CLR,,0.63,WeatherDisplay:10.37,2013-03-10 22:27:00,
2013-03-10 17:29:00,33.9,31.0,29.69,ENE,62,7.3,9.2,89,0.01,CLR,,0.63,WeatherDisplay:10.37,2013-03-10 22:29:00,
2013-03-10 17:30:00,33.8,30.9,29.68,NE,42,8.3,11.5,89,0.01,CLR,,0.63,WeatherDisplay:10.37,2013-03-10 22:30:00,
2013-03-10 17:32:00,33.8,30.9,29.68,NE,40,7.8,10.4,89,0.00,CLR,,0.63,WeatherDisplay:10.37,2013-03-10 22:32:00,
2013-03-10 17:34:00,33.8,30.9,29.68,NNE,20,6.8,12.7,89,0.00,CLR,,0.63,WeatherDisplay:10.37,2013-03-10 22:34:00,
2013-03-10 17:36:00,33.8,30.9,29.67,ENE,58,6.1,11.5,89,0.00,CLR,,0.63,WeatherDisplay:10.37,2013-03-10 22:36:00,
2013-03-10 17:37:00,33.6,30.7,29.68,NE,47,8.2,12.7,89,0.00,CLR,,0.63,WeatherDisplay:10.37,2013-03-10 22:37:00,
2013-03-10 17:38:00,33.7,30.8,29.68,North,6,9.1,16.1,89,0.00,CLR,,0.63,WeatherDisplay:10.37,2013-03-10 22:38:00,
2013-03-10 17:39:00,33.7,30.8,29.68,NE,56,7.2,11.5,89,0.00,CLR,,0.63,WeatherDisplay:10.37,2013-03-10 22:39:00,
2013-03-10 17:41:00,33.8,30.9,29.67,NE,48,7.0,12.7,89,0.00,CLR,,0.63,WeatherDisplay:10.37,2013-03-10 22:41:00,
2013-03-10 17:42:00,33.7,30.8,29.68,East,85,6.8,11.5,89,0.00,CLR,,0.63,WeatherDisplay:10.37,2013-03-10 22:42:00,
2013-03-10 17:43:00,33.6,30.7,29.68,ENE,75,6.0,8.1,89,0.00,CLR,,0.63,WeatherDisplay:10.37,2013-03-10 22:43:00,
2013-03-10 17:44:00,33.5,30.6,29.68,NNE,14,7.2,10.4,89,0.00,CLR,,0.63,WeatherDisplay:10.37,2013-03-10 22:44:00,
2013-03-10 17:46:00,33.6,30.7,29.68,ENE,65,8.3,12.7,89,0.00,CLR,,0.63,WeatherDisplay:10.37,2013-03-10 22:46:00,
2013-03-10 17:47:00,33.5,30.6,29.68,NNE,27,6.8,12.7,89,0.00,CLR,,0.63,WeatherDisplay:10.37,2013-03-10 22:47:00,
2013-03-10 17:48:00,33.6,30.7,29.68,NNE,28,6.3,10.4,89,0.00,CLR,,0.63,WeatherDisplay:10.37,2013-03-10 22:48:00,
2013-03-10 17:49:00,33.6,30.7,29.67,NNE,31,6.0,10.4,89,0.00,CLR,,0.63,WeatherDisplay:10.37,2013-03-10 22:49:00,
2013-03-10 17:52:00,33.6,30.7,29.67,NNE,27,5.5,13.8,89,0.00,CLR,,0.63,WeatherDisplay:10.37,2013-03-10 22:52:00,
2013-03-10 17:53:00,33.5,30.6,29.67,NE,44,7.1,10.4,89,0.00,CLR,,0.63,WeatherDisplay:10.37,2013-03-10 22:53:00,
2013-03-10 17:54:00,33.5,30.6,29.67,ENE,62,6.5,11.5,89,0.00,CLR,,0.63,WeatherDisplay:10.37,2013-03-10 22:54:00,
2013-03-10 17:57:00,33.4,30.5,29.68,North,10,7.3,10.4,89,0.00,CLR,,0.63,WeatherDisplay:10.37,2013-03-10 22:57:00,
2013-03-10 17:58:00,33.4,30.5,29.68,NNE,31,7.3,9.2,89,0.00,CLR,,0.63,WeatherDisplay:10.37,2013-03-10 22:58:00,
2013-03-10 17:59:00,33.5,30.6,29.68,NNE,25,6.3,9.2,89,0.00,CLR,,0.63,WeatherDisplay:10.37,2013-03-10 22:59:00,
2013-03-10 18:02:00,33.4,30.5,29.67,NE,35,6.1,12.7,89,0.00,CLR,,0.63,WeatherDisplay:10.37,2013-03-10 23:02:00,
2013-03-10 18:03:00,33.4,30.5,29.67,NNE,16,4.8,12.7,89,0.00,CLR,,0.64,WeatherDisplay:10.37,2013-03-10 23:03:00,
2013-03-10 18:04:00,33.4,30.5,29.68,NE,52,6.1,10.4,89,0.01,RA,,0.64,WeatherDisplay:10.37,2013-03-10 23:04:00,
2013-03-10 18:07:00,33.4,30.5,29.68,East,88,6.9,9.2,89,0.01,RA,,0.64,WeatherDisplay:10.37,2013-03-10 23:07:00,
2013-03-10 18:08:00,33.4,30.5,29.68,ENE,61,6.5,9.2,89,0.01,RA,,0.64,WeatherDisplay:10.37,2013-03-10 23:08:00,
2013-03-10 18:09:00,33.4,30.5,29.67,NNE,25,7.4,10.4,89,0.01,RA,,0.64,WeatherDisplay:10.37,2013-03-10 23:09:00,
2013-03-10 18:10:00,33.4,30.5,29.66,NE,44,8.0,11.5,89,0.01,RA,,0.64,WeatherDisplay:10.37,2013-03-10 23:10:00,
2013-03-10 18:13:00,33.4,30.5,29.67,ENE,62,7.8,10.4,89,0.01,RA,,0.64,WeatherDisplay:10.37,2013-03-10 23:13:00,
2013-03-10 18:14:00,33.4,30.5,29.68,NE,34,8.3,11.5,89,0.01,,,0.64,WeatherDisplay:10.37,2013-03-10 23:14:00,
2013-03-10 18:15:00,33.4,30.5,29.68,NE,44,6.6,10.4,89,0.01,,,0.64,WeatherDisplay:10.37,2013-03-10 23:15:00,
2013-03-10 18:18:00,33.4,30.5,29.67,NE,41,6.8,9.2,89,0.01,CLR,,0.64,WeatherDisplay:10.37,2013-03-10 23:18:00,
2013-03-10 18:19:00,33.5,30.6,29.67,NE,54,6.7,11.0,89,0.01,CLR,,0.65,WeatherDisplay:10.37,2013-03-10 23:19:00,
2013-03-10 18:20:00,33.4,30.5,29.67,ENE,71,9.5,13.4,89,0.02,RA,,0.65,WeatherDisplay:10.37,2013-03-10 23:20:00,
2013-03-10 18:23:00,33.3,30.4,29.65,NNE,30,9.0,13.8,89,0.02,RA,,0.65,WeatherDisplay:10.37,2013-03-10 23:23:00,
2013-03-10 18:24:00,33.4,30.5,29.65,NE,54,7.4,12.7,89,0.02,RA,,0.65,WeatherDisplay:10.37,2013-03-10 23:24:00,
2013-03-10 18:25:00,33.4,30.5,29.65,NNE,28,5.8,11.5,89,0.02,RA,,0.65,WeatherDisplay:10.37,2013-03-10 23:25:00,
2013-03-10 18:28:00,33.3,30.4,29.65,NE,48,11.4,17.3,89,0.02,RA,,0.65,WeatherDisplay:10.37,2013-03-10 23:28:00,
2013-03-10 18:29:00,33.3,30.4,29.64,North,10,8.7,13.8,89,0.02,RA,,0.65,WeatherDisplay:10.37,2013-03-10 23:29:00,
2013-03-10 18:30:00,33.2,30.3,29.64,NE,54,9.3,16.1,89,0.02,,,0.65,WeatherDisplay:10.37,2013-03-10 23:30:00,
2013-03-10 18:33:00,33.3,30.4,29.64,NE,54,8.6,16.9,89,0.02,CLR,,0.65,WeatherDisplay:10.37,2013-03-10 23:33:00,
2013-03-10 18:34:00,33.3,30.4,29.64,NE,55,7.5,16.1,89,0.02,CLR,,0.65,WeatherDisplay:10.37,2013-03-10 23:34:00,
2013-03-10 18:35:00,33.3,30.4,29.65,North,1,9.3,13.8,89,0.02,CLR,,0.65,WeatherDisplay:10.37,2013-03-10 23:35:00,
2013-03-10 18:38:00,33.3,30.4,29.66,East,89,8.0,11.5,89,0.02,CLR,,0.65,WeatherDisplay:10.37,2013-03-10 23:38:00,
2013-03-10 18:39:00,33.2,30.3,29.66,NE,40,7.5,11.5,89,0.02,CLR,,0.65,WeatherDisplay:10.37,2013-03-10 23:39:00,
2013-03-10 18:40:00,33.3,30.4,29.66,ENE,75,8.0,11.5,89,0.02,CLR,,0.65,WeatherDisplay:10.37,2013-03-10 23:40:00,
2013-03-10 18:43:00,33.3,30.4,29.66,NE,34,8.3,13.8,89,0.02,CLR,,0.65,WeatherDisplay:10.37,2013-03-10 23:43:00,
2013-03-10 18:44:00,33.3,30.4,29.66,NE,52,9.4,13.8,89,0.02,CLR,,0.65,WeatherDisplay:10.37,2013-03-10 23:44:00,
2013-03-10 18:45:00,33.2,30.3,29.66,East,95,8.1,14.0,89,0.02,CLR,,0.65,WeatherDisplay:10.37,2013-03-10 23:45:00,
2013-03-10 18:48:00,33.3,30.4,29.66,NNE,28,7.8,12.7,89,0.02,CLR,,0.65,WeatherDisplay:10.37,2013-03-10 23:48:00,
2013-03-10 18:50:00,33.3,30.4,29.66,NNE,20,8.5,17.3,89,0.02,CLR,,0.65,WeatherDisplay:10.37,2013-03-10 23:50:00,
2013-03-10 18:51:00,33.4,30.5,29.65,NE,44,9.3,20.6,89,0.02,CLR,,0.65,WeatherDisplay:10.37,2013-03-10 23:51:00,
2013-03-10 18:53:00,33.1,30.2,29.65,East,88,10.2,12.7,89,0.02,CLR,,0.65,WeatherDisplay:10.37,2013-03-10 23:53:00,
2013-03-10 18:55:00,33.2,30.3,29.65,NE,35,8.3,11.5,89,0.02,CLR,,0.65,WeatherDisplay:10.37,2013-03-10 23:55:00,
2013-03-10 18:56:00,33.2,30.3,29.65,NE,47,7.9,13.9,89,0.02,CLR,,0.65,WeatherDisplay:10.37,2013-03-10 23:56:00,
2013-03-10 18:58:00,33.2,30.3,29.65,East,95,6.6,11.5,89,0.02,CLR,,0.65,WeatherDisplay:10.37,2013-03-10 23:58:00,
2013-03-10 19:00:00,33.2,30.3,29.65,ENE,76,9.2,14.9,89,0.02,CLR,,0.65,WeatherDisplay:10.37,2013-03-11 00:00:00,
2013-03-10 19:01:00,33.2,30.3,29.65,ENE,78,11.3,16.1,89,0.02,CLR,,0.65,WeatherDisplay:10.37,2013-03-11 00:01:00,
2013-03-10 19:03:00,33.2,30.3,29.64,NE,34,8.5,16.1,89,0.02,CLR,,0.65,WeatherDisplay:10.37,2013-03-11 00:03:00,
2013-03-10 19:05:00,33.1,30.2,29.64,NNE,21,9.1,20.7,89,0.01,CLR,,0.65,WeatherDisplay:10.37,2013-03-11 00:05:00,
2013-03-10 19:06:00,33.1,30.2,29.64,NE,55,6.9,11.5,89,0.01,CLR,,0.65,WeatherDisplay:10.37,2013-03-11 00:06:00,
2013-03-10 19:08:00,33.2,30.3,29.64,ESE,102,8.0,9.2,89,0.01,CLR,,0.65,WeatherDisplay:10.37,2013-03-11 00:08:00,
2013-03-10 19:10:00,33.1,30.2,29.64,North,1,10.8,16.1,89,0.01,CLR,,0.65,WeatherDisplay:10.37,2013-03-11 00:10:00,
2013-03-10 19:11:00,33.1,30.2,29.64,NNE,21,8.2,15.0,89,0.01,CLR,,0.65,WeatherDisplay:10.37,2013-03-11 00:11:00,
2013-03-10 19:12:00,33.1,30.2,29.64,NE,42,8.5,15.0,89,0.01,CLR,,0.65,WeatherDisplay:10.37,2013-03-11 00:12:00,
2013-03-10 19:14:00,33.0,30.1,29.64,NNE,23,8.7,12.7,89,0.02,RA,,0.66,WeatherDisplay:10.37,2013-03-11 00:14:00,
2013-03-10 19:15:00,33.0,30.1,29.64,NE,41,9.3,13.8,89,0.02,RA,,0.66,WeatherDisplay:10.37,2013-03-11 00:15:00,
2013-03-10 19:16:00,33.0,30.1,29.64,NNE,27,6.0,13.8,89,0.02,RA,,0.66,WeatherDisplay:10.37,2013-03-11 00:16:00,
2013-03-10 19:17:00,33.0,30.1,29.64,NE,49,5.9,9.2,89,0.02,RA,,0.66,WeatherDisplay:10.37,2013-03-11 00:17:00,
2013-03-10 19:19:00,33.1,30.2,29.64,NNE,20,7.3,18.4,89,0.02,RA,,0.66,WeatherDisplay:10.37,2013-03-11 00:19:00,
2013-03-10 19:21:00,33.0,30.1,29.64,ENE,69,6.3,13.8,89,0.01,RA,,0.66,WeatherDisplay:10.37,2013-03-11 00:21:00,
2013-03-10 19:22:00,33.0,30.1,29.64,North,7,6.3,9.2,89,0.01,RA,,0.66,WeatherDisplay:10.37,2013-03-11 00:22:00,
2013-03-10 19:24:00,33.0,30.1,29.64,East,89,6.6,9.2,89,0.01,,,0.66,WeatherDisplay:10.37,2013-03-11 00:24:00,
2013-03-10 19:26:00,33.0,30.1,29.64,NE,51,7.4,11.5,89,0.02,RA,,0.67,WeatherDisplay:10.37,2013-03-11 00:26:00,
2013-03-10 19:27:00,33.0,30.1,29.64,NNE,23,8.9,12.7,89,0.02,RA,,0.67,WeatherDisplay:10.37,2013-03-11 00:27:00,
2013-03-10 19:29:00,33.0,30.1,29.64,East,79,7.4,15.0,89,0.02,RA,,0.67,WeatherDisplay:10.37,2013-03-11 00:29:00,
2013-03-10 19:31:00,33.0,30.4,29.64,ENE,61,10.0,16.1,90,0.02,RA,,0.67,WeatherDisplay:10.37,2013-03-11 00:31:00,
2013-03-10 19:32:00,33.0,30.4,29.64,ENE,64,9.5,16.1,90,0.02,RA,,0.67,WeatherDisplay:10.37,2013-03-11 00:32:00,
2013-03-10 19:33:00,33.0,30.4,29.64,ENE,73,8.7,13.8,90,0.02,RA,,0.67,WeatherDisplay:10.37,2013-03-11 00:33:00,
2013-03-10 19:34:00,32.9,30.3,29.64,ENE,59,8.2,10.3,90,0.02,RA,,0.68,WeatherDisplay:10.37,2013-03-11 00:34:00,
2013-03-10 19:37:00,32.9,30.3,29.64,NNE,27,6.9,18.3,90,0.03,RA,,0.68,WeatherDisplay:10.37,2013-03-11 00:37:00,
2013-03-10 19:38:00,32.9,30.3,29.63,NE,47,9.8,19.6,90,0.03,RA,,0.68,WeatherDisplay:10.37,2013-03-11 00:38:00,
2013-03-10 19:39:00,32.9,30.3,29.63,East,85,9.8,15.0,90,0.03,RA,,0.68,WeatherDisplay:10.37,2013-03-11 00:39:00,
2013-03-10 19:42:00,32.9,30.3,29.63,NE,45,7.6,17.3,90,0.04,RA,,0.69,WeatherDisplay:10.37,2013-03-11 00:42:00,
2013-03-10 19:43:00,32.9,30.3,29.63,ENE,64,8.3,11.9,90,0.04,RA,,0.69,WeatherDisplay:10.37,2013-03-11 00:43:00,
2013-03-10 19:44:00,32.9,30.3,29.63,NE,55,9.8,13.8,90,0.04,RA,,0.69,WeatherDisplay:10.37,2013-03-11 00:44:00,
2013-03-10 19:47:00,32.8,30.2,29.63,ESE,116,9.8,16.1,90,0.05,RA,,0.70,WeatherDisplay:10.37,2013-03-11 00:47:00,
2013-03-10 19:48:00,32.8,30.2,29.63,NNE,27,10.0,18.4,90,0.05,RA,,0.70,WeatherDisplay:10.37,2013-03-11 00:48:00,
2013-03-10 19:49:00,32.8,30.2,29.63,ESE,106,9.7,16.1,90,0.05,RA,,0.70,WeatherDisplay:10.37,2013-03-11 00:49:00,
2013-03-10 19:52:00,32.8,30.2,29.63,ENE,72,11.6,11.6,90,0.05,RA,,0.70,WeatherDisplay:10.37,2013-03-11 00:52:00,
2013-03-10 19:53:00,32.8,30.2,29.62,ENE,68,10.1,17.3,90,0.05,RA,,0.70,WeatherDisplay:10.37,2013-03-11 00:53:00,
2013-03-10 19:55:00,32.7,30.1,29.63,ENE,61,10.9,18.4,90,0.05,RA,,0.70,WeatherDisplay:10.37,2013-03-11 00:55:00,
2013-03-10 19:58:00,32.7,30.1,29.63,NE,42,8.9,19.6,90,0.06,RA,,0.71,WeatherDisplay:10.37,2013-03-11 00:58:00,
2013-03-10 20:00:00,32.8,30.2,29.63,ESE,103,8.7,15.0,90,0.06,RA,,0.71,WeatherDisplay:10.37,2013-03-11 01:00:00,
2013-03-10 20:03:00,32.8,30.2,29.62,ESE,116,8.4,21.4,90,0.06,RA,,0.71,WeatherDisplay:10.37,2013-03-11 01:03:00,
2013-03-10 20:05:00,32.8,30.2,29.62,NE,52,7.1,11.5,90,0.06,RA,,0.71,WeatherDisplay:10.37,2013-03-11 01:05:00,
2013-03-10 20:08:00,32.8,30.2,29.62,NE,54,10.1,15.6,90,0.06,,,0.71,WeatherDisplay:10.37,2013-03-11 01:08:00,
2013-03-10 20:10:00,32.9,30.3,29.62,NE,47,7.0,13.2,90,0.06,CLR,,0.71,WeatherDisplay:10.37,2013-03-11 01:10:00,
2013-03-10 20:13:00,32.8,30.2,29.62,East,88,7.5,12.7,90,0.05,CLR,,0.71,WeatherDisplay:10.37,2013-03-11 01:13:00,
2013-03-10 20:14:00,32.9,30.3,29.62,NNE,25,8.7,14.2,90,0.05,CLR,,0.71,WeatherDisplay:10.37,2013-03-11 01:14:00,
2013-03-10 20:15:00,32.9,30.3,29.62,North,360,10.3,18.3,90,0.05,CLR,,0.71,WeatherDisplay:10.37,2013-03-11 01:15:00,
2013-03-10 20:18:00,32.9,30.3,29.62,NNE,32,7.2,12.8,90,0.06,RA,,0.72,WeatherDisplay:10.37,2013-03-11 01:18:00,
2013-03-10 20:19:00,32.8,30.2,29.62,North,352,9.0,15.0,90,0.06,RA,,0.72,WeatherDisplay:10.37,2013-03-11 01:19:00,
2013-03-10 20:22:00,32.9,30.3,29.62,ENE,73,5.8,10.5,90,0.06,RA,,0.72,WeatherDisplay:10.37,2013-03-11 01:22:00,
2013-03-10 20:23:00,32.8,30.2,29.62,ENE,58,6.6,12.7,90,0.06,RA,,0.72,WeatherDisplay:10.37,2013-03-11 01:23:00,
2013-03-10 20:24:00,32.8,30.2,29.62,NE,42,6.9,12.7,90,0.06,RA,,0.72,WeatherDisplay:10.37,2013-03-11 01:24:00,
2013-03-10 20:27:00,32.8,30.2,29.62,ENE,64,7.0,13.8,90,0.05,RA,,0.72,WeatherDisplay:10.37,2013-03-11 01:27:00,
2013-03-10 20:28:00,32.9,30.3,29.62,ENE,69,7.9,11.5,90,0.05,,,0.72,WeatherDisplay:10.37,2013-03-11 01:28:00,
2013-03-10 20:29:00,32.9,30.3,29.62,NNE,18,8.5,12.3,90,0.05,,,0.72,WeatherDisplay:10.37,2013-03-11 01:29:00,
2013-03-10 20:30:00,32.8,30.2,29.62,NE,38,10.2,17.3,90,0.05,CLR,,0.72,WeatherDisplay:10.37,2013-03-11 01:30:00,
2013-03-10 20:33:00,32.8,30.2,29.62,NE,45,7.5,10.4,90,0.05,CLR,,0.72,WeatherDisplay:10.37,2013-03-11 01:33:00,
2013-03-10 20:34:00,32.9,30.3,29.62,ENE,72,7.2,12.7,90,0.05,CLR,,0.72,WeatherDisplay:10.37,2013-03-11 01:34:00,
2013-03-10 20:35:00,32.8,30.2,29.62,NNE,32,8.0,13.7,90,0.04,CLR,,0.72,WeatherDisplay:10.37,2013-03-11 01:35:00,
2013-03-10 20:38:00,32.8,30.2,29.62,East,79,6.8,11.5,90,0.04,CLR,,0.72,WeatherDisplay:10.37,2013-03-11 01:38:00,
2013-03-10 20:39:00,32.8,30.2,29.62,ENE,62,7.8,10.4,90,0.05,RA,,0.73,WeatherDisplay:10.37,2013-03-11 01:39:00,
2013-03-10 20:40:00,32.8,30.2,29.62,East,89,6.0,9.2,90,0.05,RA,,0.73,WeatherDisplay:10.37,2013-03-11 01:40:00,
2013-03-10 20:43:00,32.8,30.2,29.62,NE,47,4.2,8.1,90,0.04,RA,,0.73,WeatherDisplay:10.37,2013-03-11 01:43:00,
2013-03-10 20:44:00,32.8,30.2,29.62,NNE,20,5.2,8.1,90,0.04,RA,,0.73,WeatherDisplay:10.37,2013-03-11 01:44:00,
2013-03-10 20:45:00,32.8,30.2,29.62,East,93,6.3,9.2,90,0.04,RA,,0.73,WeatherDisplay:10.37,2013-03-11 01:45:00,
2013-03-10 20:48:00,32.9,30.3,29.62,NE,51,4.4,6.9,90,0.04,RA,,0.74,WeatherDisplay:10.37,2013-03-11 01:48:00,
2013-03-10 20:49:00,32.8,30.2,29.62,NNE,30,8.1,12.5,90,0.04,RA,,0.74,WeatherDisplay:10.37,2013-03-11 01:49:00,
2013-03-10 20:50:00,32.8,30.2,29.63,ENE,61,6.5,12.7,90,0.04,RA,,0.74,WeatherDisplay:10.37,2013-03-11 01:50:00,
2013-03-10 20:53:00,32.8,30.2,29.63,North,11,4.4,8.1,90,0.05,RA,,0.75,WeatherDisplay:10.37,2013-03-11 01:53:00,
2013-03-10 20:54:00,32.8,30.2,29.63,North,360,3.0,6.9,90,0.05,RA,,0.75,WeatherDisplay:10.37,2013-03-11 01:54:00,
2013-03-10 20:55:00,32.8,30.2,29.63,NE,44,2.9,7.0,90,0.05,RA,,0.75,WeatherDisplay:10.37,2013-03-11 01:55:00,
2013-03-10 20:58:00,32.7,30.1,29.63,NNE,27,3.4,5.8,90,0.04,RA,,0.75,WeatherDisplay:10.37,2013-03-11 01:58:00,
2013-03-10 20:59:00,32.7,30.1,29.63,North,6,2.5,4.6,90,0.04,RA,,0.75,WeatherDisplay:10.37,2013-03-11 01:59:00,
2013-03-10 21:00:00,32.7,30.1,29.63,NNE,25,6.4,12.7,90,0.04,RA,,0.75,WeatherDisplay:10.37,2013-03-11 02:00:00,
2013-03-10 21:03:00,32.7,30.1,29.63,NE,34,4.6,8.1,90,0.05,RA,,0.76,WeatherDisplay:10.37,2013-03-11 02:03:00,
2013-03-10 21:04:00,32.7,30.1,29.63,NE,34,4.4,5.9,90,0.05,RA,,0.76,WeatherDisplay:10.37,2013-03-11 02:04:00,
2013-03-10 21:05:00,32.8,30.2,29.63,NE,42,5.1,9.2,90,0.05,RA,,0.76,WeatherDisplay:10.37,2013-03-11 02:05:00,
2013-03-10 21:08:00,32.7,30.1,29.62,NNE,20,6.1,10.4,90,0.05,RA,,0.76,WeatherDisplay:10.37,2013-03-11 02:08:00,
2013-03-10 21:09:00,32.6,30.0,29.62,NNE,16,5.4,8.1,90,0.05,RA,,0.76,WeatherDisplay:10.37,2013-03-11 02:09:00,
2013-03-10 21:10:00,32.7,30.1,29.62,NNE,25,5.1,8.1,90,0.05,RA,,0.77,WeatherDisplay:10.37,2013-03-11 02:10:00,
2013-03-10 21:13:00,32.7,30.1,29.62,NE,41,6.3,9.2,90,0.06,RA,,0.77,WeatherDisplay:10.37,2013-03-11 02:13:00,
2013-03-10 21:15:00,32.6,30.0,29.62,NNE,25,7.3,11.5,90,0.06,RA,,0.77,WeatherDisplay:10.37,2013-03-11 02:15:00,
2013-03-10 21:18:00,32.7,30.1,29.62,ENE,58,5.5,8.8,90,0.05,RA,,0.77,WeatherDisplay:10.37,2013-03-11 02:18:00,
2013-03-10 21:20:00,32.7,30.1,29.62,NE,42,6.0,9.2,90,0.05,RA,,0.77,WeatherDisplay:10.37,2013-03-11 02:20:00,
2013-03-10 21:21:00,32.6,30.0,29.62,NNE,25,5.7,12.4,90,0.06,RA,,0.78,WeatherDisplay:10.37,2013-03-11 02:21:00,
2013-03-10 21:24:00,32.6,30.0,29.62,ENE,73,4.8,6.9,90,0.06,RA,,0.78,WeatherDisplay:10.37,2013-03-11 02:24:00,
2013-03-10 21:25:00,32.6,30.0,29.62,NNE,16,6.0,10.1,90,0.06,RA,,0.78,WeatherDisplay:10.37,2013-03-11 02:25:00,
2013-03-10 21:26:00,32.6,30.0,29.62,NNE,21,6.8,11.5,90,0.06,RA,,0.78,WeatherDisplay:10.37,2013-03-11 02:26:00,
2013-03-10 21:27:00,32.6,30.0,29.62,East,79,6.1,11.5,90,0.06,RA,,0.78,WeatherDisplay:10.37,2013-03-11 02:27:00,
2013-03-10 21:29:00,32.6,30.0,29.62,NE,47,6.6,10.4,90,0.06,RA,,0.78,WeatherDisplay:10.37,2013-03-11 02:29:00,
2013-03-10 21:30:00,32.6,30.0,29.62,NNE,13,6.8,9.2,90,0.06,RA,,0.78,WeatherDisplay:10.37,2013-03-11 02:30:00,
2013-03-10 21:32:00,32.6,30.0,29.62,NNE,25,7.0,13.8,90,0.06,,,0.79,WeatherDisplay:10.37,2013-03-11 02:32:00,
2013-03-10 21:34:00,32.6,30.0,29.62,ENE,61,7.7,13.8,90,0.07,RA,,0.79,WeatherDisplay:10.37,2013-03-11 02:34:00,
2013-03-10 21:35:00,32.6,30.0,29.62,NE,42,5.1,9.2,90,0.07,RA,,0.80,WeatherDisplay:10.37,2013-03-11 02:35:00,
2013-03-10 21:38:00,32.6,30.0,29.62,NE,51,5.4,9.2,90,0.08,RA,,0.80,WeatherDisplay:10.37,2013-03-11 02:38:00,
2013-03-10 21:39:00,32.6,30.0,29.62,ESE,109,4.3,9.2,90,0.07,RA,,0.80,WeatherDisplay:10.37,2013-03-11 02:39:00,
2013-03-10 21:40:00,32.5,29.9,29.62,NE,42,5.1,11.5,90,0.07,RA,,0.80,WeatherDisplay:10.37,2013-03-11 02:40:00,
2013-03-10 21:43:00,32.5,29.9,29.62,NE,56,6.8,11.5,90,0.07,RA,,0.80,WeatherDisplay:10.37,2013-03-11 02:43:00,
2013-03-10 21:44:00,32.4,29.8,29.62,NE,42,6.9,10.4,90,0.07,RA,,0.80,WeatherDisplay:10.37,2013-03-11 02:44:00,
2013-03-10 21:45:00,32.5,29.9,29.62,East,100,6.2,9.2,90,0.08,RA,,0.81,WeatherDisplay:10.37,2013-03-11 02:45:00,
2013-03-10 21:48:00,32.5,29.9,29.62,NE,35,8.5,10.4,90,0.07,RA,,0.81,WeatherDisplay:10.37,2013-03-11 02:48:00,
2013-03-10 21:49:00,32.5,29.9,29.62,ENE,72,6.6,12.7,90,0.07,RA,,0.81,WeatherDisplay:10.37,2013-03-11 02:49:00,
2013-03-10 21:50:00,32.6,30.0,29.62,ENE,65,8.0,11.5,90,0.07,RA,,0.81,WeatherDisplay:10.37,2013-03-11 02:50:00,
2013-03-10 21:53:00,32.5,29.9,29.62,NE,55,7.1,16.8,90,0.06,RA,,0.81,WeatherDisplay:10.37,2013-03-11 02:53:00,
2013-03-10 21:54:00,32.5,29.9,29.62,NE,48,9.1,17.3,90,0.06,RA,,0.81,WeatherDisplay:10.37,2013-03-11 02:54:00,
2013-03-10 21:57:00,32.4,29.8,29.62,ENE,68,7.4,11.5,90,0.06,CLR,,0.81,WeatherDisplay:10.37,2013-03-11 02:57:00,
2013-03-10 21:58:00,32.5,29.9,29.62,NE,40,5.2,11.5,90,0.06,CLR,,0.81,WeatherDisplay:10.37,2013-03-11 02:58:00,
2013-03-10 21:59:00,32.5,29.9,29.62,NE,41,4.9,8.1,90,0.06,CLR,,0.81,WeatherDisplay:10.37,2013-03-11 02:59:00,
2013-03-10 22:02:00,32.4,29.8,29.62,ENE,58,5.3,7.3,90,0.05,CLR,,0.81,WeatherDisplay:10.37,2013-03-11 03:02:00,
2013-03-10 22:03:00,32.5,29.9,29.62,ENE,69,5.0,10.4,90,0.05,CLR,,0.82,WeatherDisplay:10.37,2013-03-11 03:03:00,
2013-03-10 22:04:00,32.5,29.9,29.62,ESE,112,3.8,10.4,90,0.06,RA,,0.82,WeatherDisplay:10.37,2013-03-11 03:04:00,
2013-03-10 22:07:00,32.4,29.8,29.62,NNE,23,6.8,8.1,90,0.06,RA,,0.82,WeatherDisplay:10.37,2013-03-11 03:07:00,
2013-03-10 22:08:00,32.4,29.8,29.62,ENE,62,5.4,9.3,90,0.06,RA,,0.82,WeatherDisplay:10.37,2013-03-11 03:08:00,
2013-03-10 22:09:00,32.3,29.7,29.62,ENE,62,6.5,10.3,90,0.06,RA,,0.82,WeatherDisplay:10.37,2013-03-11 03:09:00,
2013-03-10 22:12:00,32.5,29.9,29.62,NE,45,5.2,16.1,90,0.05,RA,,0.82,WeatherDisplay:10.37,2013-03-11 03:12:00,
2013-03-10 22:14:00,32.4,29.8,29.62,East,90,5.5,9.2,90,0.05,,,0.82,WeatherDisplay:10.37,2013-03-11 03:14:00,
2013-03-10 22:17:00,32.4,29.8,29.62,East,85,5.9,10.4,90,0.06,RA,,0.83,WeatherDisplay:10.37,2013-03-11 03:17:00,
2013-03-10 22:19:00,32.4,29.8,29.62,NE,35,4.2,10.4,90,0.06,RA,,0.83,WeatherDisplay:10.37,2013-03-11 03:19:00,
2013-03-10 22:22:00,32.4,29.8,29.62,ENE,73,6.0,10.4,90,0.05,RA,,0.83,WeatherDisplay:10.37,2013-03-11 03:22:00,
2013-03-10 22:24:00,32.3,29.7,29.62,East,92,5.0,9.2,90,0.05,RA,,0.83,WeatherDisplay:10.37,2013-03-11 03:24:00,
2013-03-10 22:28:00,32.3,29.7,29.62,East,99,5.5,11.1,90,0.05,CLR,,0.83,WeatherDisplay:10.37,2013-03-11 03:28:00,
2013-03-10 22:29:00,32.4,29.8,29.62,NNE,23,6.9,11.5,90,0.05,CLR,,0.83,WeatherDisplay:10.37,2013-03-11 03:29:00,
2013-03-10 22:33:00,32.3,29.7,29.62,ESE,103,7.5,12.7,90,0.04,CLR,,0.83,WeatherDisplay:10.37,2013-03-11 03:33:00,
2013-03-10 22:34:00,32.4,29.8,29.62,NE,42,6.4,10.4,90,0.04,CLR,,0.83,WeatherDisplay:10.37,2013-03-11 03:34:00,
2013-03-10 22:35:00,32.4,29.8,29.62,NE,38,6.0,10.4,90,0.04,CLR,,0.83,WeatherDisplay:10.37,2013-03-11 03:35:00,
2013-03-10 22:38:00,32.3,29.7,29.62,East,83,5.7,12.7,90,0.03,CLR,,0.83,WeatherDisplay:10.37,2013-03-11 03:38:00,
2013-03-10 22:39:00,32.3,29.7,29.62,North,360,7.6,10.6,90,0.03,CLR,,0.83,WeatherDisplay:10.37,2013-03-11 03:39:00,
2013-03-10 22:40:00,32.4,29.8,29.62,NE,48,7.6,10.4,90,0.03,CLR,,0.83,WeatherDisplay:10.37,2013-03-11 03:40:00,
2013-03-10 22:43:00,32.3,29.7,29.62,North,3,4.5,9.2,90,0.03,CLR,,0.83,WeatherDisplay:10.37,2013-03-11 03:43:00,
2013-03-10 22:44:00,32.4,29.8,29.62,East,82,5.7,7.7,90,0.03,CLR,,0.83,WeatherDisplay:10.37,2013-03-11 03:44:00,
2013-03-10 22:45:00,32.4,29.8,29.62,NE,34,5.3,10.4,90,0.02,CLR,,0.83,WeatherDisplay:10.37,2013-03-11 03:45:00,
2013-03-10 22:48:00,32.3,29.7,29.62,East,85,6.9,9.1,90,0.02,CLR,,0.83,WeatherDisplay:10.37,2013-03-11 03:48:00,
2013-03-10 22:49:00,32.3,29.7,29.62,NE,47,8.4,9.2,90,0.02,CLR,,0.83,WeatherDisplay:10.37,2013-03-11 03:49:00,
2013-03-10 22:50:00,32.4,29.8,29.62,East,89,7.2,15.0,90,0.02,CLR,,0.83,WeatherDisplay:10.37,2013-03-11 03:50:00,
2013-03-10 22:53:00,32.3,29.7,29.62,North,360,4.0,10.4,90,0.02,CLR,,0.83,WeatherDisplay:10.37,2013-03-11 03:53:00,
2013-03-10 22:54:00,32.3,29.7,29.62,NNE,23,4.6,5.8,90,0.02,CLR,,0.83,WeatherDisplay:10.37,2013-03-11 03:54:00,
2013-03-10 22:55:00,32.3,29.7,29.62,NNE,18,5.4,6.9,90,0.02,CLR,,0.83,WeatherDisplay:10.37,2013-03-11 03:55:00,
2013-03-10 22:58:00,32.4,29.8,29.62,ENE,58,4.9,5.8,90,0.03,RA,,0.84,WeatherDisplay:10.37,2013-03-11 03:58:00,
2013-03-10 22:59:00,32.4,29.8,29.62,East,86,5.2,8.1,90,0.03,RA,,0.84,WeatherDisplay:10.37,2013-03-11 03:59:00,
2013-03-10 23:00:00,32.4,29.8,29.62,East,83,5.0,8.1,90,0.03,RA,,0.84,WeatherDisplay:10.37,2013-03-11 04:00:00,
2013-03-10 23:05:00,32.2,29.6,29.62,NE,49,5.2,6.9,90,0.02,RA,,0.84,WeatherDisplay:10.37,2013-03-11 04:05:00,
2013-03-10 23:10:00,32.3,29.7,29.62,NE,41,5.6,10.4,90,0.02,CLR,,0.84,WeatherDisplay:10.37,2013-03-11 04:10:00,
2013-03-10 23:15:00,32.2,29.6,29.62,NE,44,4.6,7.6,90,0.01,CLR,,0.84,WeatherDisplay:10.37,2013-03-11 04:15:00,
2013-03-10 23:16:00,32.2,29.6,29.62,NE,47,4.8,8.1,90,0.01,CLR,,0.84,WeatherDisplay:10.37,2013-03-11 04:16:00,
2013-03-10 23:20:00,32.2,29.6,29.62,NNE,17,4.5,6.9,90,0.01,CLR,,0.84,WeatherDisplay:10.37,2013-03-11 04:20:00,
2013-03-10 23:21:00,32.2,29.6,29.62,NNE,31,4.9,6.9,90,0.01,CLR,,0.84,WeatherDisplay:10.37,2013-03-11 04:21:00,
2013-03-10 23:25:00,32.2,29.6,29.62,NNE,17,5.7,6.9,90,0.01,CLR,,0.84,WeatherDisplay:10.37,2013-03-11 04:25:00,
2013-03-10 23:26:00,32.2,29.6,29.62,NE,42,7.0,10.4,90,0.01,CLR,,0.84,WeatherDisplay:10.37,2013-03-11 04:26:00,
2013-03-10 23:27:00,32.2,29.6,29.62,NE,56,4.6,8.1,90,0.01,CLR,,0.84,WeatherDisplay:10.37,2013-03-11 04:27:00,
2013-03-10 23:30:00,32.2,29.6,29.62,NE,41,6.4,9.2,90,0.01,CLR,,0.84,WeatherDisplay:10.37,2013-03-11 04:30:00,
2013-03-10 23:32:00,32.2,29.6,29.62,NNE,32,4.9,9.2,90,0.01,CLR,,0.84,WeatherDisplay:10.37,2013-03-11 04:32:00,
2013-03-10 23:35:00,32.1,29.5,29.62,NNE,20,6.5,9.2,90,0.01,CLR,,0.84,WeatherDisplay:10.37,2013-03-11 04:35:00,
2013-03-10 23:36:00,32.1,29.5,29.61,NE,52,4.5,6.9,90,0.01,CLR,,0.84,WeatherDisplay:10.37,2013-03-11 04:36:00,
2013-03-10 23:37:00,32.2,29.6,29.62,NNE,20,3.3,5.8,90,0.01,CLR,,0.84,WeatherDisplay:10.37,2013-03-11 04:37:00,
2013-03-10 23:40:00,32.1,29.5,29.62,North,10,6.8,9.2,90,0.01,CLR,,0.84,WeatherDisplay:10.37,2013-03-11 04:40:00,
2013-03-10 23:41:00,32.2,29.6,29.62,ENE,78,4.8,9.2,90,0.01,CLR,,0.84,WeatherDisplay:10.37,2013-03-11 04:41:00,
2013-03-10 23:42:00,32.1,29.5,29.62,NE,44,4.1,8.1,90,0.01,CLR,,0.84,WeatherDisplay:10.37,2013-03-11 04:42:00,
2013-03-10 23:45:00,32.1,29.5,29.62,NNE,30,5.4,9.2,90,0.01,CLR,,0.84,WeatherDisplay:10.37,2013-03-11 04:45:00,
2013-03-10 23:46:00,32.1,29.5,29.61,NNE,20,4.4,9.2,90,0.01,CLR,,0.84,WeatherDisplay:10.37,2013-03-11 04:46:00,
2013-03-10 23:47:00,32.1,29.5,29.61,ENE,72,5.2,8.1,90,0.01,CLR,,0.84,WeatherDisplay:10.37,2013-03-11 04:47:00,
2013-03-10 23:50:00,32.1,29.5,29.62,NE,34,3.9,6.9,90,0.01,CLR,,0.84,WeatherDisplay:10.37,2013-03-11 04:50:00,
2013-03-10 23:51:00,32.1,29.5,29.62,North,8,6.9,9.9,90,0.01,CLR,,0.84,WeatherDisplay:10.37,2013-03-11 04:51:00,
2013-03-10 23:52:00,32.1,29.5,29.62,NNE,30,5.9,10.4,90,0.01,CLR,,0.84,WeatherDisplay:10.37,2013-03-11 04:52:00,
2013-03-10 23:55:00,32.0,29.4,29.61,North,7,4.9,8.1,90,0.01,CLR,,0.84,WeatherDisplay:10.37,2013-03-11 04:55:00,
2013-03-10 23:56:00,32.0,29.4,29.62,ENE,64,4.5,8.1,90,0.01,CLR,,0.84,WeatherDisplay:10.37,2013-03-11 04:56:00,
2013-03-10 23:57:00,32.0,29.4,29.62,NE,49,4.3,6.9,90,0.01,CLR,,0.84,WeatherDisplay:10.37,2013-03-11 04:57:00,
2013-03-10 23:58:00,32.0,29.4,29.62,ENE,76,4.2,5.8,90,0.00,CLR,,0.84,WeatherDisplay:10.37,2013-03-11 04:58:00,